ECMWFFLT1_850_dewp_000.txt.gz
Dewpoint
13 13 14 14 14 14 13 13 12 12 12 12 12 13 13 13 13 12 9 7 5 3 4 5 5 5 4 2 1 1 4 5 6 6 7 9 10 10 9 8 7 7 7 7 5 3 2 3 2 -0 -0 3 5 4 3 3 1 1 3 5 7 9 10
12 13 14 14 14 14 14 13 12 12 12 12 12 13 13 13 13 12 8 6 4 1 1 2 2 1 0 -1 -2 -0 3 5 7 7 7 9 10 10 9 5 3 3 3 4 4 2 2 3 1 -2 -2 -0 0 1 1 1 0 2 4 6 7 8 8
12 13 14 14 14 14 14 13 12 12 12 12 12 13 13 13 13 12 9 6 3 -1 -1 -1 -2 -2 -3 -3 -2 -0 3 6 8 8 7 8 9 10 7 3 1 1 2 3 3 2 1 1 -1 -3 -3 -3 -3 -3 -2 -1 1 3 5 6 6 6 6
11 12 13 14 14 14 14 13 12 12 12 11 12 12 12 12 13 13 11 8 4 -0 -3 -4 -4 -4 -4 -4 -2 0 4 8 10 10 9 8 8 8 4 -0 -1 -1 -1 -0 -0 -0 -0 -1 -2 -4 -4 -3 -4 -4 -2 -1 1 2 2 3 4 5 5
10 11 13 14 15 15 15 14 13 12 12 12 12 12 12 12 12 13 13 11 8 3 -2 -5 -5 -4 -4 -3 -3 -0 4 7 9 9 9 7 6 5 0 -4 -4 -5 -6 -5 -3 -2 -2 -2 -4 -4 -2 -2 -2 -2 -1 -0 1 1 1 2 4 5 5
11 12 12 13 14 14 15 15 14 13 11 11 11 12 12 12 13 13 13 13 11 6 1 -2 -4 -6 -4 -3 -3 -1 2 5 6 6 5 3 0 -2 -5 -8 -8 -8 -7 -6 -5 -3 -3 -3 -3 -3 -1 -1 -1 0 0 1 2 2 3 3 4 5 5
10 11 12 12 13 14 14 15 14 13 12 11 11 11 12 13 13 13 13 13 12 9 5 -1 -5 -6 -5 -3 -3 -2 0 3 5 5 4 4 1 -5 -9 -9 -10 -9 -6 -4 -3 -3 -3 -3 -2 -1 1 1 2 2 2 3 4 5 5 5 5 6 6
9 10 10 11 12 12 14 15 14 14 14 13 13 13 13 14 13 13 13 13 12 10 7 2 -4 -6 -5 -4 -3 -2 -2 2 4 3 1 4 2 -4 -9 -10 -12 -10 -7 -5 -3 -3 -3 -2 -0 1 2 3 4 4 4 5 6 6 7 6 7 7 6
9 9 9 9 11 12 12 13 13 14 14 14 14 13 13 13 14 13 13 13 12 11 9 4 -3 -7 -5 -5 -3 -3 -3 0 3 1 -0 -0 -2 -5 -8 -10 -12 -10 -7 -6 -4 -4 -3 -1 1 2 4 5 4 5 6 7 7 8 7 7 7 7 6
9 9 9 9 10 11 11 12 13 14 15 14 14 14 13 13 13 13 13 13 13 11 9 7 2 -3 -5 -5 -4 -3 -2 1 2 1 0 -1 -3 -4 -6 -8 -10 -10 -8 -5 -3 -3 -3 -1 2 4 5 4 4 5 7 8 8 7 7 6 6 6 6
9 9 10 10 10 11 11 12 14 15 14 14 14 14 14 14 14 14 14 14 14 12 11 10 7 1 -4 -5 -4 -3 -1 1 3 4 4 2 1 -0 -3 -6 -9 -10 -7 -4 -2 -2 -2 -0 2 4 4 3 4 5 7 7 7 6 5 6 6 6 6
10 10 9 9 10 11 11 12 13 14 13 13 14 14 14 14 15 15 15 14 14 13 12 11 9 6 1 -2 -2 -1 0 1 4 7 8 8 7 2 -4 -5 -9 -9 -3 -2 -2 -2 -1 0 2 3 3 3 4 6 7 6 6 6 6 6 7 7 6
10 10 9 10 10 10 11 12 12 13 12 13 14 14 14 14 15 15 15 15 14 14 13 12 11 8 5 3 1 2 4 5 5 7 9 11 11 5 -3 -5 -6 -4 3 4 0 -1 -0 1 2 3 3 3 4 6 6 6 6 6 7 7 7 7 6
10 11 10 10 11 11 11 11 11 11 12 12 13 14 14 14 15 16 15 15 14 14 14 13 12 11 8 6 5 4 5 4 4 6 8 11 13 10 1 -6 -5 -1 4 7 5 1 -0 1 2 3 3 3 5 6 6 6 6 6 6 6 5 6 7
11 11 10 10 11 11 11 10 10 10 11 12 13 13 14 14 15 16 16 15 15 14 14 14 13 12 11 9 8 7 8 9 10 13 13 14 15 13 7 2 4 4 1 5 8 5 1 2 3 3 2 3 5 7 7 6 5 5 5 4 4 6 7
11 10 10 10 10 11 10 9 9 10 10 11 11 12 13 13 14 14 14 14 14 14 14 14 14 14 14 13 13 12 13 14 15 15 15 15 15 14 10 8 10 10 4 6 10 8 4 4 5 5 3 2 5 7 8 6 5 5 5 4 5 6 6
10 10 10 10 10 10 9 9 9 10 10 9 8 9 11 10 11 12 12 13 14 13 13 15 16 16 16 15 15 15 15 15 16 15 15 14 14 14 10 6 8 10 10 11 13 12 9 8 7 5 2 2 5 8 8 6 5 6 6 5 6 7 6
10 10 10 10 10 10 9 9 9 9 7 6 7 8 8 8 10 11 12 13 12 12 14 16 16 16 16 16 15 16 16 16 16 15 15 14 14 14 11 6 5 8 9 10 12 13 13 12 9 4 1 3 5 7 7 6 5 6 6 6 7 8 8
10 10 10 8 7 7 7 7 7 6 6 6 6 7 7 9 11 11 12 13 13 15 16 16 16 17 17 17 16 16 17 17 17 16 15 14 14 14 12 8 7 7 5 5 7 11 13 13 9 3 1 3 5 6 6 5 5 6 6 7 8 8 9
10 10 9 6 6 6 5 5 7 7 6 6 7 8 10 11 12 13 14 15 15 16 16 16 16 17 17 17 17 17 17 17 17 16 15 14 13 11 9 7 7 5 4 3 4 7 8 8 5 5 5 6 6 7 6 5 6 6 6 7 8 9 9
9 10 8 6 6 6 7 8 9 9 8 8 8 9 9 9 9 11 13 15 15 15 15 15 16 17 17 17 17 17 17 17 17 16 14 12 10 8 6 6 6 5 5 5 4 4 3 2 3 6 9 9 9 8 6 6 7 7 7 8 9 9 9
8 8 6 6 6 7 8 9 9 8 6 5 4 4 3 2 4 8 10 12 13 14 15 15 16 17 17 17 17 17 17 17 16 15 11 8 7 5 4 5 5 5 6 5 3 2 1 1 2 4 8 10 10 9 7 6 7 8 8 9 9 10 10
6 5 5 7 8 8 7 5 4 3 2 1 0 -0 -1 -2 -1 3 6 8 10 12 13 15 16 16 16 17 17 16 16 15 14 12 8 6 6 5 5 6 5 4 4 3 1 1 1 1 2 5 9 11 11 10 9 7 8 9 9 9 10 10 10
8 8 8 9 9 7 4 2 2 2 1 1 0 -1 -1 -2 -3 -1 0 2 5 8 11 13 15 15 16 16 16 15 15 14 12 10 8 8 7 7 8 9 8 6 3 2 2 2 1 1 3 7 10 11 11 11 10 10 9 9 9 9 9 9 9
9 9 9 8 7 4 2 2 2 1 0 -0 0 -0 -0 -0 -1 -1 -0 -0 1 3 6 10 13 14 15 15 15 15 13 12 11 9 8 8 7 7 8 8 6 3 2 2 2 1 1 3 6 8 11 12 11 10 9 10 10 9 9 9 8 8 8
8 7 6 4 4 3 2 3 2 1 2 1 0 -0 -0 -0 -1 -0 1 2 3 3 5 9 12 14 14 14 14 14 12 11 10 9 9 9 7 5 4 4 1 1 1 2 2 3 5 7 8 10 11 12 11 9 8 9 9 7 8 8 7 8 8
6 5 4 3 4 2 2 2 2 2 3 2 2 2 1 1 1 1 1 3 4 6 8 11 13 13 14 14 14 13 12 11 11 9 9 9 7 1 -0 0 -1 -1 1 2 4 7 8 9 9 10 10 10 10 9 7 7 7 6 6 7 7 8 8
4 4 4 4 4 4 4 4 4 4 5 5 4 4 2 2 2 2 3 5 6 9 10 12 13 13 13 13 13 13 12 11 11 9 9 10 8 4 4 5 4 3 2 3 7 8 9 9 8 7 7 7 7 7 6 7 7 6 6 7 8 8 7
7 7 7 6 6 6 7 7 5 5 6 7 6 5 3 4 4 5 6 7 9 10 11 11 12 12 12 12 12 12 11 11 10 10 10 10 10 9 9 9 8 7 6 6 8 8 7 6 4 3 5 6 6 6 7 7 6 6 6 7 7 7 6
7 7 8 8 8 8 8 7 6 6 7 7 6 5 4 6 7 8 8 9 10 10 11 11 12 12 12 12 12 11 10 10 10 10 10 9 9 10 10 9 9 8 7 8 8 7 4 3 3 4 7 7 7 7 7 6 6 6 7 7 6 5 5
4 4 5 5 5 6 5 5 5 5 5 5 5 6 7 8 9 10 10 10 10 11 11 12 12 12 12 12 11 11 10 10 10 10 9 9 9 9 9 9 9 8 8 8 6 3 3 3 4 6 8 8 8 8 7 6 6 6 6 6 5 3 2
2 2 2 1 1 2 2 2 2 2 2 2 4 7 9 10 10 11 11 12 12 12 13 12 12 12 12 11 11 11 10 10 10 10 10 9 9 8 8 8 8 6 5 5 3 1 2 2 3 6 8 8 8 8 7 7 6 6 6 4 3 1 0
4 3 2 2 2 2 2 2 2 3 3 3 5 7 10 10 10 12 13 13 13 13 13 12 12 12 11 11 11 11 10 10 10 10 10 9 9 8 8 8 7 4 2 2 2 2 2 1 1 5 7 7 7 7 7 7 6 5 4 2 1 1 1
5 4 3 3 3 2 2 2 3 4 5 6 7 9 10 11 11 12 13 14 14 13 12 12 12 11 11 10 10 10 10 10 9 9 9 9 8 8 7 6 5 3 1 1 2 2 1 -0 -0 2 5 7 6 6 6 6 5 4 2 1 1 2 2
5 5 5 5 4 4 5 5 6 7 8 9 10 10 10 11 12 12 12 13 13 13 12 12 11 10 9 9 9 9 9 9 9 9 9 8 6 5 5 5 4 3 2 2 2 0 -1 -2 0 4 6 6 6 6 6 5 4 3 2 2 2 3 3
5 6 7 6 5 6 7 8 8 10 10 10 9 9 9 11 11 11 11 12 12 12 12 11 10 9 9 9 9 9 9 9 9 8 7 5 4 4 4 3 3 3 3 2 -0 -1 -1 1 4 5 6 6 6 6 5 4 3 3 2 2 3 4 4
5 6 7 7 6 7 8 9 10 10 10 9 7 8 9 9 10 10 11 11 11 11 11 9 8 8 9 9 9 9 9 8 7 5 4 5 5 5 4 3 4 4 2 -0 -1 0 3 5 6 6 6 6 6 5 5 4 4 3 3 3 4 4 5
7 7 8 8 8 8 9 10 10 10 10 10 8 8 9 9 9 10 11 11 10 10 9 7 6 6 6 7 7 8 7 6 5 5 6 6 6 5 4 3 2 2 1 1 2 4 6 7 6 6 6 6 6 5 5 4 4 3 3 4 5 5 5

ECMWFFLT1_850_dewp_006.txt.gz
Dewpoint
13 14 14 14 15 15 14 14 15 15 13 11 10 10 11 11 12 12 12 13 13 14 14 14 14 14 14 14 13 13 13 13 14 14 14 14 14 14 12 12 12 12 13 14 14 14 15 15 14 14 14 10 4 1 3 4 6 8 7 4 6 9 10
13 13 14 14 15 15 14 13 12 12 11 11 10 10 10 11 12 12 12 12 12 13 13 14 14 13 13 13 13 13 12 13 13 13 14 14 13 13 12 11 12 12 12 12 13 13 15 15 14 14 13 9 6 5 5 6 5 7 10 8 8 10 10
12 13 14 14 15 15 14 11 9 8 9 10 10 10 10 11 11 11 11 11 11 12 13 13 13 12 12 12 12 12 11 12 12 12 13 13 12 12 12 11 11 11 11 12 12 12 14 14 13 12 11 8 8 9 8 9 7 6 9 10 10 11 11
12 12 13 14 15 15 13 9 6 7 8 10 9 9 10 10 10 10 10 11 11 11 12 12 12 11 10 10 11 11 10 10 11 11 12 13 12 12 12 11 11 11 11 11 12 12 12 12 11 10 8 7 8 10 10 10 10 9 9 10 11 11 11
12 12 12 14 15 16 15 11 7 6 8 11 10 8 8 9 9 10 10 10 10 10 10 11 11 11 10 9 10 10 9 9 10 11 12 13 12 12 12 12 11 11 11 12 13 12 10 9 8 6 5 5 7 10 11 10 10 10 9 9 10 11 11
11 12 12 13 14 15 16 13 10 7 8 11 11 8 8 9 9 10 10 10 10 10 10 10 11 11 9 9 9 9 8 9 10 11 11 11 10 11 11 10 7 9 12 13 13 12 8 5 5 3 3 6 9 12 12 11 11 11 11 9 8 8 10
10 11 12 13 14 15 15 14 13 11 9 11 12 9 8 9 9 9 10 10 9 10 10 10 10 10 9 7 8 8 7 8 10 10 9 9 8 9 9 7 4 8 13 14 14 13 8 4 4 1 -0 5 9 11 9 7 8 9 9 8 7 7 7
9 12 13 13 13 13 14 14 14 14 13 13 14 11 8 9 10 11 11 12 11 10 10 11 10 8 7 7 7 8 8 7 8 8 7 8 8 7 6 5 3 7 13 15 15 13 9 4 2 -1 -3 1 5 7 5 2 1 3 5 6 8 8 9
10 12 13 13 13 12 13 14 14 15 15 15 14 12 8 9 11 12 13 13 14 12 11 12 13 9 6 7 8 7 6 5 5 6 6 6 6 4 4 2 2 6 12 15 15 13 9 4 2 -1 -1 0 1 3 3 1 0 0 2 5 7 7 8
10 13 13 12 12 12 12 13 14 15 16 16 15 13 10 9 11 13 14 14 15 15 13 13 14 12 7 6 7 5 4 4 4 3 4 4 4 4 5 3 0 5 12 15 15 14 8 3 2 -1 -2 -1 1 1 1 1 1 2 3 4 5 5 5
12 13 14 13 12 13 12 13 15 15 15 15 14 13 12 10 10 11 13 14 15 16 15 14 15 15 11 5 5 6 4 4 2 1 2 2 2 5 6 4 0 4 11 13 14 13 9 2 -1 -1 0 3 4 4 3 2 1 2 4 5 5 4 5
13 13 14 14 13 13 14 15 16 15 14 13 13 13 13 12 11 11 12 14 15 15 16 16 15 16 14 7 5 6 5 4 3 1 -2 -0 6 10 9 4 1 5 11 12 13 13 10 4 -2 -0 5 6 5 5 5 4 2 2 4 6 6 5 4
13 13 13 14 15 14 15 16 16 16 13 11 11 12 12 12 12 12 12 13 14 16 16 17 16 17 16 13 10 8 6 5 4 3 4 10 14 14 10 2 0 5 11 13 12 11 9 5 0 1 6 6 4 4 5 5 3 2 4 5 6 6 6
12 13 13 14 15 15 16 17 17 16 13 10 10 11 12 12 12 13 12 11 13 16 17 17 17 17 18 17 16 13 9 8 9 12 15 15 15 13 9 3 0 5 10 11 9 6 5 4 1 -0 3 5 5 4 5 5 4 2 4 5 5 6 6
13 13 12 13 14 15 15 15 15 14 11 9 10 11 11 11 11 12 12 11 12 15 17 17 17 17 18 18 18 17 15 14 16 17 17 16 14 12 8 2 -0 3 6 5 2 5 9 9 4 -0 2 4 5 5 4 5 5 3 2 3 4 5 6
13 13 12 10 11 13 12 10 11 13 11 8 10 10 9 10 10 10 10 10 11 13 16 18 18 17 18 18 18 18 17 17 18 18 18 17 16 14 10 5 2 1 1 1 1 6 12 13 9 3 2 3 5 6 5 4 5 4 2 2 3 4 6
11 13 13 9 8 12 13 10 8 10 9 6 7 9 9 9 9 9 11 13 14 15 17 18 18 18 18 18 18 19 19 19 18 18 17 17 17 16 15 12 8 2 -0 1 1 3 9 12 12 8 5 3 4 6 6 4 5 4 2 2 4 5 7
12 12 13 13 12 14 15 14 11 9 7 8 10 9 8 8 8 10 13 16 18 18 18 18 18 18 18 18 19 19 19 19 18 17 17 17 17 17 17 16 13 8 3 1 0 1 4 10 12 11 7 4 3 6 6 5 4 4 2 4 6 7 8
13 13 14 15 15 14 14 16 16 14 13 15 16 14 13 14 14 14 16 18 19 19 19 19 18 18 18 18 19 19 19 19 18 17 17 18 18 17 17 17 15 12 7 3 2 1 1 6 11 12 10 6 4 6 7 5 3 3 4 7 9 9 9
12 14 15 15 15 15 14 15 17 15 14 16 17 16 17 18 18 17 17 17 17 16 17 17 18 18 19 19 19 19 19 18 18 18 18 18 18 17 17 17 16 14 12 9 6 3 1 4 10 12 11 8 6 8 8 5 4 5 7 9 11 10 8
11 14 15 14 15 15 14 15 16 15 14 15 16 16 16 16 15 14 14 14 13 13 15 15 16 17 19 19 19 18 18 18 18 18 18 18 17 17 17 17 16 15 14 12 9 6 3 6 11 11 9 9 9 9 8 5 6 9 10 11 11 8 5
10 12 13 12 12 12 12 13 13 12 12 13 13 13 12 11 12 14 15 13 11 10 12 13 14 17 19 18 17 18 18 17 17 18 17 17 17 17 17 16 15 15 15 14 11 9 6 9 11 10 9 11 11 10 8 7 9 11 11 12 10 5 2
9 11 11 11 11 11 9 10 12 11 9 10 10 9 8 7 8 11 11 9 6 5 7 9 12 16 18 17 16 16 16 16 17 17 16 17 17 17 16 16 15 15 15 15 14 13 12 12 11 9 9 12 12 10 8 9 10 11 11 10 6 3 1
9 10 12 13 13 12 9 10 12 11 9 10 10 7 4 1 2 3 3 2 2 1 5 8 9 12 14 15 13 12 13 14 15 15 15 16 16 16 16 16 16 15 15 15 15 15 14 14 13 12 12 13 13 11 10 11 11 10 8 6 4 2 3
9 10 12 13 12 12 10 11 12 10 9 11 10 4 -1 -1 -0 1 1 2 2 3 5 7 7 8 9 9 7 7 9 12 13 15 15 16 16 16 16 16 16 15 15 15 15 15 15 15 14 14 14 14 13 12 11 12 11 8 5 4 3 2 4
11 11 11 13 13 13 12 11 10 9 9 10 7 1 -0 1 1 2 3 3 4 6 6 6 6 7 6 4 2 2 5 9 12 14 15 15 15 15 15 15 15 15 14 14 14 14 14 14 14 14 13 13 13 12 10 10 10 8 5 4 3 3 5
13 13 14 14 14 12 10 8 7 6 6 5 3 1 2 2 2 3 3 3 5 6 6 4 3 3 3 2 1 1 5 10 13 14 15 15 15 15 15 15 14 13 12 12 12 13 13 13 12 12 12 12 12 11 10 9 9 8 6 5 5 5 5
15 15 15 14 12 9 8 7 4 3 3 3 2 3 3 3 3 3 3 2 3 3 2 2 2 1 1 1 2 5 10 13 14 15 16 16 16 15 15 14 12 9 7 8 10 11 12 12 12 11 11 11 11 11 10 9 8 6 5 5 6 5 4
15 14 12 10 10 11 10 7 4 3 4 4 3 2 2 2 2 1 1 1 1 1 1 1 1 1 1 1 2 5 10 13 15 15 15 15 15 14 13 10 8 7 6 7 10 11 11 11 11 11 11 11 11 11 10 8 5 4 5 5 5 5 4
10 10 9 8 9 10 9 7 5 5 5 5 4 3 2 2 1 1 1 1 1 1 1 1 1 2 1 2 5 6 9 12 13 13 14 14 13 12 9 7 7 8 7 8 10 11 11 11 11 11 11 11 10 10 8 5 4 4 5 5 5 6 6
9 9 10 9 9 9 7 5 4 4 4 4 4 4 4 3 2 1 1 2 2 1 2 1 1 2 2 3 6 7 9 11 12 12 13 13 11 9 8 8 8 8 7 8 11 12 11 11 11 10 10 10 9 8 6 5 4 4 5 6 6 7 8
9 10 9 8 8 9 9 7 5 5 5 4 3 3 3 3 3 2 1 2 2 2 2 3 3 4 4 4 5 7 9 10 11 12 12 11 9 9 8 8 9 8 6 8 11 11 11 11 11 10 10 10 10 8 5 5 6 6 6 7 8 8 8
6 6 6 4 4 7 8 8 6 5 4 4 3 4 5 5 5 5 4 3 4 4 5 6 5 5 5 6 7 9 10 11 12 13 12 10 9 10 10 9 10 10 8 10 12 12 11 11 11 10 10 11 11 10 7 6 7 8 8 8 8 7 7
5 5 4 4 4 4 5 6 5 4 3 4 3 5 7 7 6 6 5 5 6 7 8 8 8 8 8 9 9 10 11 12 12 12 12 10 10 11 12 11 12 11 11 12 12 12 12 12 11 11 10 11 11 11 9 8 8 8 9 10 9 7 7
6 5 5 5 4 4 4 5 5 4 4 5 5 6 7 7 6 6 6 7 9 10 10 10 11 11 11 11 11 11 12 13 13 12 12 11 11 12 12 12 12 12 12 12 11 11 12 11 11 11 10 10 10 10 8 8 8 8 9 9 8 7 6
8 7 7 6 6 5 5 5 6 5 5 5 6 7 7 7 7 8 9 10 11 11 12 12 12 12 12 13 13 13 13 13 13 13 12 12 11 11 11 11 11 11 11 11 10 10 10 10 11 10 9 9 9 7 6 8 9 8 8 7 6 6 5
9 9 9 9 8 7 6 7 7 7 7 7 8 8 8 8 9 10 11 11 12 12 12 11 11 12 13 14 14 13 13 13 13 13 13 13 12 11 11 11 11 10 10 10 10 9 8 8 8 8 7 7 8 7 6 7 7 6 6 6 5 5 4
9 10 11 11 9 8 8 8 9 10 9 9 9 9 10 10 10 11 12 12 12 12 10 8 9 12 13 14 13 12 12 13 13 13 13 13 13 12 11 11 10 10 10 9 9 7 6 5 4 4 4 4 5 5 6 6 6 6 6 6 6 5 4

ECMWFFLT1_850_dewp_009.txt.gz
Dewpoint
11 10 9 11 13 14 14 15 15 15 15 14 15 15 16 16 16 17 18 19 19 16 12 12 13 13 12 12 12 12 12 12 11 11 12 12 13 15 16 16 15 15 15 15 15 15 15 15 14 14 14 14 13 12 8 5 5 7 8 4 4 9 11
10 10 8 11 13 14 13 14 15 15 15 15 16 16 15 15 16 17 18 19 19 16 12 12 13 13 12 12 13 12 12 12 11 11 12 12 13 14 15 16 15 14 14 14 15 15 15 15 15 14 14 14 13 11 8 4 -0 3 10 8 3 6 10
9 11 10 11 13 14 14 14 15 16 16 15 16 16 15 15 16 17 18 18 19 17 13 13 14 13 13 12 12 13 12 12 12 11 11 12 14 14 14 14 14 13 13 13 15 15 15 15 15 14 14 14 13 11 9 8 3 0 8 10 7 8 10
6 10 10 11 13 14 14 14 15 15 15 15 16 16 16 16 16 16 17 18 19 17 14 14 14 13 13 13 12 13 13 12 12 12 11 12 14 14 14 14 12 13 14 14 15 15 14 15 14 13 13 13 13 12 10 10 10 6 5 8 9 10 12
4 9 10 11 12 14 15 15 15 15 15 15 16 17 16 16 16 17 16 17 18 17 13 13 15 14 13 13 13 13 13 12 13 13 12 11 13 14 14 14 13 14 15 15 15 14 12 13 14 13 13 11 11 13 12 10 11 11 7 5 7 10 11
2 7 9 11 12 14 15 15 15 15 15 15 16 17 17 16 16 17 16 16 17 17 15 13 15 16 14 13 14 13 12 13 13 13 13 11 11 13 14 15 15 15 15 15 14 12 11 11 13 14 13 11 10 13 12 10 10 11 9 7 7 8 10
-0 5 8 10 12 14 15 15 15 15 14 14 14 16 16 16 16 16 17 16 16 17 17 15 15 17 15 14 14 14 12 13 13 13 14 13 10 12 14 15 14 14 15 15 13 11 11 11 12 12 10 10 11 10 8 7 8 9 7 5 5 6 7
-2 2 7 10 12 13 14 15 15 15 15 13 13 15 16 15 16 16 16 16 16 16 17 17 16 17 16 14 14 14 12 12 12 12 14 14 14 14 14 14 13 12 14 14 11 10 11 12 12 10 4 4 7 5 3 5 8 8 5 2 1 2 3
-3 2 6 10 11 12 13 15 14 15 14 13 11 13 15 15 14 14 14 15 15 14 16 16 16 18 17 14 12 13 12 12 12 13 13 15 15 14 14 15 13 11 11 11 10 10 11 11 10 6 2 -1 -0 0 1 4 5 5 3 1 1 1 0
0 3 7 10 11 11 12 14 15 15 14 13 11 13 16 15 13 13 13 13 14 13 14 14 13 16 17 14 11 11 11 12 12 14 16 16 15 14 14 15 13 10 9 6 6 7 8 8 5 1 3 1 -5 -6 -2 1 2 2 2 1 2 3 0
2 2 8 11 12 12 12 13 14 15 15 14 12 13 15 15 12 12 12 12 12 12 13 14 12 14 18 17 15 11 10 10 13 16 17 16 14 13 14 14 12 10 9 4 1 2 1 2 -1 -4 3 4 -2 -6 -4 -0 2 3 3 3 4 3 1
6 8 12 14 14 13 13 13 14 15 15 15 14 14 15 15 12 11 11 11 12 10 12 14 12 13 18 19 19 16 12 10 15 18 17 14 12 10 10 12 9 7 8 5 1 0 -1 -1 -3 -5 2 6 3 -4 -5 -0 3 4 3 5 7 6 1
12 15 15 15 15 14 14 14 14 15 16 16 16 15 16 16 14 11 11 12 11 10 11 12 12 13 16 19 20 19 16 15 17 17 13 10 10 8 9 12 9 5 5 4 2 0 -1 -1 -2 -2 2 6 6 -1 -5 0 4 5 4 5 7 6 3
13 16 15 15 15 15 15 15 14 15 17 17 18 17 17 17 15 12 12 13 12 11 11 12 13 14 15 18 20 20 19 19 18 15 8 7 8 7 8 9 7 5 4 3 2 1 0 -1 -1 -1 -1 4 8 4 -3 1 5 5 4 4 5 5 4
12 15 15 16 15 14 13 15 15 16 17 18 18 18 18 17 17 15 14 15 13 11 11 13 14 14 14 17 19 20 20 20 18 15 10 8 8 7 6 4 0 1 1 1 0 -0 0 -0 -0 0 -1 2 8 6 1 2 6 6 5 4 5 5 4
6 10 11 13 14 14 12 14 17 17 18 19 19 19 18 18 18 17 16 16 15 13 12 13 14 15 15 16 19 20 20 19 19 18 16 12 9 6 6 2 -2 -2 -3 -1 0 -1 0 -0 -0 2 3 5 8 8 5 3 4 5 5 4 4 4 4
-5 -1 -0 1 11 15 14 15 18 19 19 20 19 19 19 18 18 18 17 17 16 14 13 13 15 17 16 17 19 20 20 19 19 18 17 15 12 10 9 6 4 2 1 0 1 0 -1 -2 -1 2 5 8 11 10 7 5 4 4 4 4 4 4 4
-7 -7 -4 -4 5 13 16 16 17 18 19 20 19 19 19 19 19 18 17 17 17 16 14 15 17 18 18 19 20 20 20 20 19 18 17 17 16 14 13 12 10 8 6 4 4 3 0 -1 0 2 5 9 12 11 9 6 5 4 4 4 4 4 3
-4 -8 -3 0 1 9 15 16 16 16 19 20 20 19 20 20 19 19 18 18 18 17 16 17 19 19 19 20 20 20 20 19 18 18 18 17 17 16 16 15 14 13 12 10 8 6 3 1 1 2 4 9 12 12 11 9 7 6 5 4 4 4 4
-3 -6 -1 3 2 8 15 17 16 17 19 20 19 19 19 20 20 19 18 18 19 18 17 18 20 20 20 20 20 20 19 18 18 18 18 17 17 17 17 17 16 16 15 14 12 11 9 5 3 4 5 8 12 12 11 11 11 10 8 6 5 5 5
-6 -1 4 4 3 9 16 17 16 17 19 19 19 19 19 19 19 18 18 18 19 19 18 19 20 20 20 19 20 20 19 18 19 18 17 17 17 17 18 17 17 17 17 16 16 15 14 10 7 7 7 8 11 11 11 12 12 11 9 7 6 6 7
-8 3 8 10 10 13 16 15 13 16 18 19 19 19 19 19 19 18 18 19 20 19 19 20 21 20 20 19 20 20 18 18 19 18 17 17 17 18 18 17 17 17 17 17 17 16 15 14 12 11 10 9 10 11 12 12 12 12 10 8 7 7 8
-4 3 8 11 14 15 14 12 12 16 18 18 19 19 19 19 19 19 19 20 20 20 20 20 21 20 20 20 20 20 19 19 19 18 17 17 17 17 18 17 17 17 17 17 17 16 15 15 15 14 13 12 12 13 13 12 12 12 11 10 9 8 7
3 3 6 10 13 15 15 13 14 17 18 18 19 19 19 19 19 19 20 20 20 20 20 20 21 20 20 20 20 20 19 19 17 16 16 17 17 17 17 17 17 17 17 17 16 16 15 15 15 14 14 14 13 14 13 12 12 13 12 11 10 8 8
5 4 7 10 12 14 16 15 15 18 18 18 19 19 19 19 19 19 20 20 20 20 20 20 20 20 20 20 19 19 18 17 16 16 16 16 16 16 17 17 17 17 17 16 16 16 15 15 14 14 14 14 14 14 13 13 13 13 12 11 10 10 10
7 6 8 10 11 15 16 15 16 18 18 18 19 19 18 18 19 19 20 20 20 20 20 20 20 18 17 17 16 15 15 16 16 17 16 15 16 16 17 17 17 16 16 16 16 15 15 15 15 15 15 14 14 14 14 14 14 14 13 11 10 10 11
9 9 10 11 13 16 17 17 17 18 18 18 18 18 18 18 19 20 20 20 20 20 20 19 16 11 9 9 8 10 14 16 17 17 17 17 17 17 17 16 16 16 16 15 15 15 14 14 14 14 14 14 14 14 13 13 13 14 13 11 10 11 11
11 10 11 13 15 16 17 17 17 17 17 17 17 17 18 19 20 20 19 18 18 17 14 10 5 1 1 4 5 7 12 16 17 16 16 17 17 17 16 16 15 15 15 14 13 13 13 13 13 13 14 14 13 13 13 12 13 13 12 11 11 10 9
12 12 13 15 16 16 16 16 17 17 18 18 18 19 19 20 19 17 14 14 11 7 3 0 0 0 0 3 4 5 11 15 15 13 15 16 17 16 16 15 14 14 14 13 13 13 13 13 12 12 12 12 12 12 12 12 11 11 11 10 10 8 6
14 15 16 17 16 16 16 17 18 18 18 17 17 16 16 14 9 7 10 12 11 7 3 1 3 5 4 5 6 8 13 15 14 13 15 16 16 16 15 14 13 12 11 11 12 13 13 13 12 12 11 11 12 12 12 11 11 10 10 8 7 6 6
16 16 15 14 14 15 15 16 15 15 14 13 12 11 7 3 4 10 15 15 12 7 1 2 9 11 10 11 12 13 15 16 16 15 16 16 16 15 14 13 12 10 8 8 10 11 13 13 12 12 11 11 11 11 11 12 12 10 8 6 4 6 7
13 13 13 14 14 14 14 15 15 15 15 15 14 12 8 9 12 14 12 8 5 3 1 3 9 12 13 15 16 16 16 16 16 16 16 16 15 14 12 11 10 9 9 9 10 12 13 13 12 12 12 11 11 10 11 12 12 10 8 6 6 7 8
14 12 11 11 12 13 14 15 15 16 16 16 14 11 10 11 10 7 3 2 3 3 3 2 5 12 16 17 17 16 16 16 16 16 16 15 15 13 11 10 11 11 10 10 11 12 12 12 12 11 11 11 10 10 11 12 12 11 9 7 7 7 8
16 16 15 12 11 10 10 11 11 12 14 13 11 12 13 11 6 1 1 4 3 2 5 9 12 15 17 16 15 15 16 16 15 15 15 15 14 13 12 11 11 12 12 12 12 12 12 12 11 10 10 10 10 10 12 12 12 12 11 9 7 7 7
14 15 16 16 16 14 12 12 13 14 15 15 15 16 15 11 5 3 6 9 9 7 10 15 16 17 16 14 14 15 16 15 15 15 15 14 14 13 13 13 12 12 13 12 12 12 12 12 12 11 10 10 10 11 12 12 11 12 11 9 6 6 7
14 14 14 15 16 16 16 17 17 17 17 17 17 16 13 10 10 11 12 14 15 13 12 14 16 16 15 14 15 15 15 15 15 14 14 14 13 13 13 13 12 12 13 12 12 11 11 11 12 11 11 10 10 11 12 12 11 10 9 6 5 6 7
15 15 15 14 13 13 14 15 16 15 15 16 17 15 13 12 14 15 15 16 15 13 10 12 14 15 15 15 14 15 15 14 14 14 14 13 13 13 12 12 12 12 12 12 11 11 10 10 11 11 11 10 10 10 10 10 8 7 6 6 6 6 6
14 14 15 15 13 11 11 12 12 12 12 14 15 15 15 15 15 16 15 15 14 12 10 12 15 15 14 14 14 15 14 14 13 13 13 13 13 13 12 12 12 12 11 11 10 11 10 9 9 11 11 10 9 9 8 7 5 5 7 8 7 6 6

ECMWFFLT1_850_dewp_015.txt.gz
Dewpoint
7 7 8 9 10 10 11 11 12 13 14 14 15 15 16 15 16 16 16 16 16 16 16 17 16 16 15 13 11 11 10 10 11 12 13 14 15 16 15 15 14 13 12 11 11 11 11 11 10 10 11 10 10 11 11 12 11 3 -3 2 4 6 7
8 8 9 9 9 10 11 11 12 13 13 14 15 15 15 16 16 16 16 16 16 16 16 17 17 16 15 14 12 11 10 10 11 12 13 14 15 15 15 14 14 12 11 11 11 12 12 12 11 11 11 10 9 10 10 10 7 -1 -6 -2 -0 2 3
9 9 9 9 10 9 10 11 12 13 14 14 15 15 15 16 16 16 16 16 16 16 17 17 17 17 16 15 14 12 11 10 10 12 13 14 14 14 14 14 13 11 10 10 11 12 12 13 12 12 11 10 9 10 9 4 -2 -7 -6 -4 -3 -2 -1
8 9 10 10 10 9 10 11 11 13 13 14 15 15 15 16 16 16 16 16 16 17 17 17 17 17 17 16 15 14 12 11 11 12 13 14 14 14 14 14 13 11 10 10 10 12 13 13 12 12 12 11 10 11 9 5 -2 -6 -6 -4 -3 -3 -2
8 9 10 10 10 10 10 11 11 12 13 13 14 15 15 16 16 16 16 16 17 17 17 17 17 17 17 16 16 15 13 11 11 12 13 14 14 14 14 13 13 11 10 9 10 11 13 12 12 12 12 12 11 11 10 8 3 -5 -8 -5 -3 -3 -2
8 9 10 10 10 10 11 11 11 11 12 13 14 15 15 15 16 16 16 16 17 17 17 17 17 17 17 17 16 16 14 12 11 12 12 13 14 14 13 12 12 11 10 9 10 11 12 12 12 12 12 12 12 11 10 9 6 -1 -7 -6 -4 -2 -2
9 10 10 10 11 11 10 10 10 10 11 12 13 14 15 15 15 16 16 16 17 17 18 18 17 17 17 17 17 16 15 12 11 12 12 13 13 13 12 12 11 10 10 10 10 10 11 12 13 12 12 12 11 11 10 9 8 4 -3 -7 -5 -3 -2
8 9 10 10 11 10 9 9 9 10 11 13 13 14 15 15 16 15 16 16 16 17 17 18 18 17 18 18 18 17 15 12 11 11 12 12 12 12 12 11 11 10 10 10 10 11 11 12 13 12 12 12 11 11 10 9 9 7 2 -5 -6 -3 -1
8 8 9 9 9 9 8 8 10 11 12 13 14 14 15 15 16 16 16 16 16 17 17 17 17 17 18 18 18 17 15 12 11 11 12 12 11 11 10 10 11 10 10 9 9 10 11 12 12 12 12 12 11 11 11 10 9 9 6 -1 -7 -4 -0
8 7 8 9 9 10 9 10 11 12 12 13 13 14 15 15 15 16 16 16 16 16 17 17 17 18 18 18 18 18 16 14 12 12 12 12 11 10 9 10 10 9 9 9 9 10 11 11 12 12 12 12 12 12 11 10 9 9 8 3 -4 -4 -0
9 8 8 10 9 10 10 11 12 12 12 12 12 13 14 15 15 15 16 16 16 16 16 17 17 18 18 18 18 18 17 15 13 12 11 11 10 9 9 9 9 8 8 8 8 9 10 11 11 12 12 11 12 12 11 11 10 9 9 6 -0 -4 -1
8 9 9 10 10 9 10 10 11 11 12 12 12 13 14 15 15 15 15 16 16 16 16 17 17 18 18 18 18 18 17 16 15 13 11 10 8 8 10 10 9 8 7 6 7 8 9 11 11 11 11 11 11 11 12 11 11 10 9 8 3 -3 -2
8 9 9 9 10 9 9 10 10 11 11 11 12 14 15 15 15 15 16 16 16 16 16 16 17 18 18 18 18 18 17 16 15 12 10 8 7 7 10 10 9 9 7 5 5 6 7 9 11 11 12 12 11 11 11 11 11 11 10 9 6 0 -3
9 9 9 9 9 9 9 10 10 11 12 12 13 14 15 15 15 15 16 16 16 16 16 16 17 18 19 19 18 18 17 15 13 11 9 7 6 7 9 10 10 9 8 6 5 3 4 6 8 10 11 12 12 11 12 12 12 12 11 10 9 4 -2
10 10 10 10 9 9 8 8 9 10 12 13 14 15 15 15 15 15 15 16 16 15 16 16 17 18 19 18 18 18 16 14 13 12 9 7 7 7 8 9 9 10 10 9 7 5 4 5 7 9 10 11 12 12 12 13 13 12 12 11 10 7 1
10 9 9 8 8 7 6 4 5 7 8 10 12 13 14 14 15 15 15 16 15 15 16 16 17 18 19 19 18 18 17 15 13 12 11 8 7 7 8 9 9 10 11 10 10 9 9 9 9 10 11 11 12 13 13 13 13 13 12 12 11 9 4
10 10 9 8 9 8 5 5 6 6 6 7 8 9 11 12 14 15 16 16 16 15 15 16 17 18 18 18 18 18 17 16 14 13 12 10 9 9 10 10 11 12 12 12 12 13 13 12 12 12 12 13 13 13 14 14 14 14 13 13 12 11 8
10 11 10 9 10 8 7 8 7 7 8 8 8 9 10 12 14 15 16 16 15 16 16 16 16 17 18 18 18 18 18 17 15 14 13 13 12 11 12 13 14 14 15 14 14 14 15 15 15 14 14 14 14 14 14 14 14 14 14 13 13 12 10
10 11 10 8 8 9 7 8 7 7 8 9 9 10 10 12 14 15 16 16 16 16 15 16 16 16 17 18 18 18 18 17 17 16 15 15 14 13 14 15 16 16 16 16 15 16 16 16 16 15 15 15 15 15 15 15 15 15 15 14 13 13 11
8 10 10 7 7 8 9 8 8 7 7 8 9 9 9 12 14 15 15 16 16 16 15 15 16 16 17 17 17 17 17 17 17 17 16 16 15 15 16 16 17 17 17 17 16 16 16 16 16 16 16 15 15 15 15 15 16 16 15 15 14 13 12
0 5 8 7 5 7 9 9 8 8 7 8 8 9 10 12 14 15 16 16 16 16 15 15 15 15 16 16 16 16 16 17 17 17 17 17 17 17 17 17 18 18 18 17 17 16 16 16 16 16 16 16 16 15 16 16 16 16 15 15 15 14 13
-2 -0 5 8 8 9 10 8 6 6 6 6 8 10 12 13 14 15 16 16 16 16 15 15 15 15 15 15 15 15 15 16 17 17 18 17 17 18 18 18 18 18 18 17 17 17 16 16 16 16 16 16 16 16 16 16 16 16 16 15 15 14 14
-6 -5 -2 3 6 8 8 6 4 4 4 5 7 9 11 12 14 16 16 15 15 15 15 15 14 14 14 14 14 14 15 16 17 18 18 17 17 18 19 19 18 18 18 17 17 17 16 16 16 16 15 16 16 16 16 16 16 15 15 14 14 13 13
-11 -9 -7 -5 -1 2 4 6 5 3 3 5 7 7 8 10 13 15 16 15 15 15 15 14 14 14 13 13 13 13 14 15 16 17 18 17 17 18 19 19 19 18 18 17 17 17 16 16 16 16 16 16 16 16 16 15 15 15 14 14 13 13 12
-7 -12 -10 -7 -6 -3 2 6 6 5 5 6 6 7 7 8 11 14 15 16 15 15 14 14 13 13 12 12 12 13 13 14 15 17 17 17 17 17 18 19 19 18 18 18 17 17 17 17 17 17 17 17 16 16 16 15 15 14 14 14 13 13 13
3 -2 -7 -7 -7 -6 0 4 3 1 3 6 7 8 9 9 11 13 14 15 15 15 15 14 13 12 12 11 12 13 13 14 16 17 17 17 17 17 18 19 19 18 18 18 18 18 17 17 17 17 17 16 16 16 16 15 15 14 14 14 13 13 13
4 4 3 0 -4 -4 1 4 3 -1 -2 2 6 9 10 11 11 11 12 15 16 16 15 15 14 12 11 11 12 13 13 15 16 17 17 17 17 18 19 19 19 19 19 18 18 18 18 18 17 17 17 17 16 16 15 15 14 14 14 14 14 14 13
1 2 6 6 3 -1 -2 2 5 5 3 3 6 10 12 13 13 12 12 14 15 15 15 16 15 13 12 13 13 14 15 17 17 18 18 18 18 19 19 19 19 19 19 19 18 18 18 18 17 17 17 16 16 15 15 15 14 14 14 14 14 14 14
3 -0 3 6 7 6 3 2 5 9 11 11 13 15 16 16 15 14 14 14 15 15 16 17 17 15 15 15 16 17 18 19 19 18 18 19 19 19 19 19 19 19 19 19 18 18 18 18 17 17 16 16 15 15 15 14 14 14 14 14 14 14 14
8 5 3 3 5 7 9 11 12 13 15 17 16 15 15 16 15 15 15 15 16 17 18 18 17 17 17 18 18 19 20 20 19 19 19 19 19 19 19 19 19 19 18 18 18 18 18 18 17 16 16 15 15 15 15 14 13 13 13 13 13 14 14
11 11 9 7 5 4 6 11 15 16 17 18 17 16 15 15 15 15 16 17 18 18 18 18 18 19 19 19 20 20 20 20 20 20 20 20 19 19 19 19 18 18 18 18 18 17 17 17 16 16 15 15 15 14 14 13 12 12 12 12 13 13 13
12 12 11 10 9 8 5 6 12 15 16 17 18 19 19 18 16 16 17 18 19 19 19 19 19 20 20 20 21 20 20 20 20 20 20 19 19 19 18 17 17 17 16 16 16 16 15 15 14 14 14 14 14 13 12 11 11 12 12 11 12 12 12
13 13 13 13 13 14 13 10 11 14 15 16 18 19 19 19 19 19 18 19 19 19 20 20 20 21 21 20 20 20 20 20 19 19 19 18 18 17 16 15 14 14 14 15 15 15 14 14 13 12 12 13 12 11 10 10 11 11 11 11 11 11 10
15 14 14 14 14 15 16 15 14 15 15 15 16 16 17 19 20 20 20 20 20 20 21 20 20 20 20 19 19 19 19 19 18 17 16 16 15 15 14 14 13 13 13 14 14 15 15 14 13 12 12 13 12 11 11 11 11 11 11 10 10 10 9
15 14 14 14 14 15 15 16 15 15 15 15 16 17 18 19 20 20 19 20 20 20 20 19 19 18 17 17 18 19 18 18 17 14 12 13 14 13 13 14 14 13 13 14 14 15 14 14 14 12 11 11 11 11 11 11 11 11 10 9 8 7 7
15 15 15 16 15 15 15 16 16 16 16 17 17 18 19 19 19 18 18 19 19 19 19 18 18 17 17 17 18 18 17 17 15 12 10 11 11 11 13 14 15 15 14 14 14 14 14 13 12 9 8 10 11 11 11 10 10 10 9 8 7 6 5
15 15 16 16 16 16 16 16 16 17 17 17 18 18 18 18 18 18 18 18 18 17 17 17 17 17 18 18 18 17 16 15 14 13 12 12 13 13 14 15 15 15 15 14 13 13 12 10 9 8 10 11 11 11 11 10 10 10 9 8 7 6 5
13 14 15 15 15 16 16 16 16 17 18 18 18 17 17 17 17 18 18 17 16 16 17 18 17 17 17 17 16 16 15 14 14 14 14 14 15 15 14 14 15 15 14 12 12 11 10 9 10 11 12 12 11 10 10 10 10 10 9 8 7 6 5

ECMWFFLT1_850_dewp_021.txt.gz
Dewpoint
7 8 9 9 10 11 11 11 10 11 11 11 11 11 11 12 12 13 13 14 14 14 14 14 14 14 14 14 14 14 14 14 14 14 13 13 12 12 11 11 11 11 11 12 12 12 12 12 12 13 14 14 14 14 13 11 11 11 9 6 3 2 2
6 7 8 9 10 10 10 10 10 11 11 11 10 11 11 11 12 12 13 13 14 13 14 14 14 14 14 14 14 14 14 14 15 15 14 14 12 12 12 11 11 11 11 11 11 12 13 12 11 12 14 14 14 13 12 11 11 10 9 5 3 1 -0
6 6 7 8 9 10 10 10 10 11 11 11 11 11 11 11 11 12 12 13 13 13 14 14 14 14 14 14 14 14 14 15 15 15 15 14 13 12 11 11 11 11 11 11 12 12 13 12 12 12 13 13 12 11 11 11 11 10 9 7 6 4 -1
6 6 7 7 8 9 9 10 10 10 11 10 11 11 11 11 11 12 12 12 12 13 14 14 14 14 14 14 14 14 14 15 15 15 15 14 14 12 11 11 11 11 11 12 12 13 13 13 12 12 13 12 12 11 11 11 10 10 9 9 9 7 2
7 6 7 7 7 8 9 10 10 10 10 10 11 11 11 11 12 12 12 13 13 13 13 13 13 14 14 14 14 14 14 14 15 15 15 14 14 13 11 10 10 10 11 11 12 13 13 13 13 12 13 12 11 11 11 11 10 9 9 9 9 7 3
7 7 7 7 7 7 8 8 9 9 10 10 10 10 11 12 12 13 13 13 13 13 13 13 13 14 14 14 14 14 14 15 15 15 15 15 14 13 11 8 9 10 10 11 12 13 13 13 13 12 12 12 11 11 11 11 10 9 8 9 8 5 2
7 7 8 7 7 7 7 7 8 9 9 9 9 11 12 13 13 13 13 13 14 14 14 14 14 14 14 14 14 15 15 15 15 15 15 15 15 14 11 8 8 9 10 11 12 12 13 14 13 12 12 12 11 11 11 11 10 8 8 8 6 3 0
6 7 7 7 8 7 7 7 7 8 8 9 10 11 12 12 13 13 13 14 14 14 14 14 14 14 14 14 15 15 15 15 15 15 15 15 15 14 11 8 7 8 10 11 11 12 12 13 14 13 12 11 11 11 11 11 10 9 8 8 6 3 1
6 6 6 7 7 8 8 7 7 7 8 10 11 11 12 12 13 13 13 13 14 14 14 14 14 14 14 15 15 15 15 15 15 15 15 15 15 13 11 8 7 8 9 10 11 12 12 13 14 13 12 12 11 11 11 11 11 10 9 8 7 5 3
6 6 6 7 7 8 8 7 8 8 8 10 11 11 12 12 13 13 13 14 14 14 13 14 15 15 15 15 15 15 15 15 15 16 16 15 15 13 11 9 8 8 9 10 11 12 12 13 13 13 13 12 12 11 11 11 11 11 10 9 9 8 6
6 6 6 7 7 8 8 8 9 9 9 9 10 11 12 12 12 13 13 14 14 14 14 14 15 15 15 15 15 15 15 15 16 15 15 15 14 13 12 10 8 7 8 9 10 11 12 13 14 14 13 13 12 11 11 11 11 12 11 10 10 10 8
6 6 6 6 7 7 8 8 9 9 9 9 9 10 11 12 12 13 13 13 13 14 14 14 15 16 16 15 15 15 15 15 15 15 15 15 14 14 13 12 10 8 8 9 9 10 11 12 13 14 13 13 12 12 11 11 11 12 11 11 11 11 10
5 6 6 6 7 7 7 8 9 9 9 9 9 10 11 12 12 12 13 13 14 14 14 15 15 15 15 16 15 15 15 15 15 15 15 15 14 14 14 13 11 9 8 8 9 10 11 12 13 14 14 13 13 12 12 12 12 11 12 12 11 11 11
4 5 5 6 7 7 7 8 8 9 9 9 10 10 10 11 12 12 12 13 13 14 15 15 15 15 15 16 16 15 15 15 15 15 15 14 14 14 15 14 13 10 8 8 9 9 10 11 13 14 14 14 14 13 13 13 12 12 12 12 12 12 12
4 4 5 6 6 7 8 8 8 8 8 9 10 10 11 11 12 12 12 13 13 14 14 15 15 15 15 16 16 15 15 15 15 15 15 15 15 15 15 15 14 12 10 8 8 9 10 11 12 13 14 15 14 14 13 13 13 12 12 12 13 13 13
3 4 5 6 5 6 7 7 8 8 8 9 9 10 11 11 11 12 12 13 14 14 14 15 15 15 15 15 15 15 15 15 15 15 15 15 15 15 15 15 15 14 12 9 7 9 10 11 12 13 14 15 14 14 13 13 13 12 12 13 13 14 14
3 3 4 5 5 6 7 7 8 8 9 9 9 10 10 10 11 12 12 13 13 14 14 15 15 15 15 15 15 15 16 16 15 15 15 15 15 15 15 15 16 15 14 11 9 8 9 10 12 13 14 14 14 13 13 12 12 13 13 13 14 14 14
3 3 4 5 5 6 6 7 7 8 9 9 9 10 10 10 10 12 13 13 13 13 14 15 15 15 14 15 15 16 16 16 16 16 15 15 16 16 16 16 16 16 15 14 11 8 8 9 11 12 13 14 14 13 12 12 13 13 13 13 14 14 15
2 2 4 5 6 6 7 7 7 7 8 8 9 9 9 10 11 11 12 12 13 14 15 15 15 15 15 15 16 16 16 16 16 16 16 16 16 16 16 17 16 16 15 15 13 10 8 8 10 11 12 13 13 12 12 12 13 14 14 14 14 15 15
6 5 5 5 6 7 7 7 7 7 8 8 8 8 9 10 10 10 10 12 13 14 14 14 15 15 15 15 16 16 16 17 17 16 16 16 16 17 17 17 16 16 16 15 15 13 9 8 9 10 11 11 12 12 12 12 13 13 14 14 15 15 15
9 9 7 6 6 6 6 6 7 7 8 8 8 9 9 10 10 10 10 12 13 14 14 14 14 14 15 15 15 16 16 16 17 16 17 17 17 17 17 17 17 16 16 16 15 13 10 9 8 8 9 10 11 11 12 12 12 13 14 14 15 15 15
9 9 8 7 6 6 6 6 5 5 6 7 8 9 9 10 10 10 10 11 12 13 13 13 13 13 14 14 15 16 16 16 16 17 17 17 18 18 17 17 17 17 17 16 15 14 13 11 8 7 8 9 10 11 11 11 12 13 14 14 15 15 15
8 7 7 8 8 8 8 7 7 7 7 7 8 9 9 9 9 10 10 11 12 12 13 13 13 13 13 14 14 15 16 16 16 17 17 18 18 18 17 17 17 17 17 16 16 15 14 12 9 7 7 8 10 10 10 11 12 13 14 15 15 16 16
8 7 6 5 6 8 8 9 9 9 9 9 9 9 8 9 9 9 10 11 12 12 13 13 13 12 13 14 14 14 15 16 16 17 17 18 18 17 17 17 17 17 16 16 16 15 13 12 11 9 8 8 9 9 10 11 12 13 14 15 16 16 16
6 7 7 6 6 6 6 8 9 9 10 10 10 10 9 9 10 10 10 10 11 12 13 13 12 12 12 12 13 13 15 16 16 17 17 17 17 17 17 17 17 17 17 16 16 15 14 14 13 11 9 9 9 9 11 13 13 14 15 16 16 17 17
3 4 5 5 6 6 6 7 9 10 11 10 9 10 10 10 11 10 10 10 10 11 11 10 9 10 11 12 13 14 15 16 16 17 17 17 17 17 17 17 17 17 17 17 16 16 16 16 15 13 12 10 10 11 13 14 14 15 16 16 17 17 17
4 3 3 4 4 4 4 5 7 9 10 10 10 11 11 11 11 11 11 11 11 10 7 5 5 8 10 12 13 14 15 16 16 16 16 16 17 17 17 17 17 17 17 17 17 17 17 17 16 15 14 13 13 13 14 14 15 16 17 17 17 17 17
1 0 1 1 1 1 -0 1 5 7 8 9 10 10 10 11 11 11 11 12 11 7 2 3 5 7 10 12 13 14 15 16 16 16 16 16 16 17 17 17 17 17 17 17 18 18 17 17 17 17 16 15 15 15 15 16 16 17 17 17 17 17 17
0 -0 0 -1 -1 -0 -2 -1 1 2 4 6 8 9 10 11 12 12 11 12 10 7 5 6 7 9 11 13 14 15 15 16 16 17 17 16 16 17 17 17 17 18 18 18 18 18 18 18 17 17 17 17 16 16 17 17 17 18 18 17 17 17 16
2 1 1 0 0 -0 -2 -2 -1 -1 0 3 5 7 9 10 12 13 12 11 10 9 9 10 10 11 12 13 14 15 15 15 16 16 17 17 17 17 18 18 18 18 18 18 18 18 18 18 18 18 18 18 18 18 18 18 18 18 17 17 17 16 16
7 5 3 3 3 3 2 2 1 0 0 0 2 5 8 9 11 12 12 11 11 11 12 11 11 12 13 13 14 15 15 16 16 16 16 17 17 17 18 18 18 18 18 18 18 18 18 18 18 18 18 18 18 18 18 18 18 17 17 17 16 16 15
9 8 7 6 5 5 5 5 5 5 4 4 3 4 6 9 10 10 9 10 12 13 13 13 13 13 13 13 14 14 15 15 16 16 16 16 17 17 18 19 19 18 18 18 18 18 18 19 19 18 18 18 18 18 18 17 17 17 17 16 16 15 14
11 11 10 10 9 7 7 7 7 7 7 8 9 9 9 10 11 11 10 10 13 14 14 15 15 15 14 14 14 14 15 15 15 15 16 16 17 18 18 19 19 19 18 18 18 18 19 19 19 18 18 18 18 18 18 17 16 16 17 16 16 15 14
12 12 12 12 12 11 10 10 10 10 9 9 10 11 11 11 13 15 15 14 14 15 15 15 15 16 16 16 15 15 15 16 16 16 16 16 17 18 18 18 19 19 19 18 18 18 19 19 19 19 18 17 17 18 17 17 16 16 17 16 15 14 13
13 13 12 12 12 12 12 12 12 12 12 11 10 11 11 11 12 15 17 17 17 17 17 16 16 16 16 16 16 16 16 16 16 16 16 16 17 17 18 18 18 19 19 18 17 17 18 18 18 18 17 17 17 17 17 17 17 17 16 15 14 13 12
13 12 12 12 11 11 12 12 13 13 13 13 12 12 12 13 13 14 15 17 18 18 18 18 17 17 17 16 17 17 16 16 16 16 16 16 16 17 18 18 19 19 19 18 18 17 17 18 18 17 16 17 17 17 17 17 16 15 15 15 13 12 11
14 14 13 13 12 12 12 13 13 14 14 14 14 14 14 14 14 15 15 16 16 17 18 18 18 18 18 17 17 17 17 16 16 16 16 16 16 16 17 18 19 19 19 19 19 18 18 18 18 17 16 17 17 18 17 15 13 13 14 13 11 11 11
15 15 15 14 14 14 14 14 14 15 16 16 16 16 16 16 15 15 15 15 16 16 18 18 19 18 18 18 18 18 17 17 17 17 17 17 18 17 18 18 19 19 19 19 18 18 19 19 18 18 18 18 17 17 16 13 12 12 12 10 9 10 11

ECMWFFLT1_850_dewp_024.txt.gz
Dewpoint
9 11 11 11 11 11 11 11 11 12 12 11 11 10 11 11 12 12 12 12 12 11 12 12 12 13 13 13 13 13 14 13 13 13 12 12 12 11 10 10 10 8 8 9 10 10 11 11 12 13 14 14 13 13 14 14 14 13 12 11 10 10 8
8 9 10 10 11 11 11 11 11 11 11 11 11 10 10 11 11 12 11 11 11 10 11 11 12 12 12 13 13 13 14 14 14 14 13 13 13 12 11 10 10 9 9 9 10 10 11 11 12 14 14 14 13 13 13 14 14 13 12 11 10 9 6
7 8 9 10 10 10 11 11 11 11 11 11 11 10 10 10 10 10 10 11 11 10 11 12 12 12 12 12 13 13 14 14 14 14 14 14 13 13 12 11 11 10 10 9 9 10 11 11 12 14 14 14 14 13 13 14 14 13 11 10 10 8 4
5 7 8 9 10 10 10 11 10 11 11 11 10 10 10 9 9 10 10 11 11 11 11 11 11 12 12 12 13 13 13 14 14 14 14 14 14 13 12 12 12 12 11 10 9 10 10 11 11 13 14 14 14 13 13 14 14 12 10 10 10 7 4
5 5 7 7 9 9 10 10 10 10 10 10 10 10 9 9 10 10 11 10 11 11 10 9 10 11 12 12 13 13 13 13 13 14 14 14 14 14 13 13 13 13 12 11 10 10 10 10 11 12 13 14 14 13 12 14 13 11 10 10 9 8 6
6 5 6 6 7 8 9 10 10 10 10 10 10 10 9 10 11 11 11 11 11 11 11 11 11 11 11 12 12 13 13 13 13 13 14 14 14 14 14 13 13 14 13 13 11 10 9 9 10 11 12 13 13 13 12 13 13 11 10 10 9 9 8
6 6 6 6 6 6 8 8 9 10 9 10 10 10 10 10 11 11 11 11 11 11 11 12 11 11 11 12 12 13 13 13 13 14 14 14 14 14 14 14 14 14 14 14 12 10 9 8 9 10 12 13 14 13 13 13 12 11 10 9 9 8 8
5 6 6 6 6 5 7 7 8 9 9 10 10 10 10 10 11 11 11 11 11 11 11 10 10 11 11 12 12 13 13 13 13 13 14 14 14 14 14 14 14 14 15 14 13 11 9 8 8 9 11 13 13 13 13 13 12 11 10 9 9 8 8
5 6 5 6 6 6 6 6 7 8 9 10 10 10 10 10 11 11 11 11 11 12 11 10 10 10 11 12 12 12 13 13 13 13 14 14 14 14 14 14 14 15 15 15 14 12 9 8 8 9 10 11 12 14 13 13 12 11 10 10 9 8 7
5 5 5 6 6 6 6 6 7 8 8 9 9 10 10 10 11 11 11 12 12 11 11 10 11 11 12 12 12 12 13 13 13 13 14 14 14 14 14 14 14 15 15 15 15 14 11 8 8 9 9 10 12 13 14 13 12 11 10 10 10 9 8
4 4 4 5 6 6 7 6 7 7 8 8 9 9 10 10 11 11 11 11 11 11 11 10 11 11 12 12 13 13 13 13 13 14 14 14 14 14 14 14 14 15 15 15 15 14 12 9 9 8 9 9 11 12 13 13 12 11 10 10 10 10 9
2 3 3 4 5 6 7 7 7 7 7 7 8 9 10 10 10 11 11 11 11 11 11 11 11 12 13 13 13 13 13 13 13 14 14 14 14 14 14 14 15 15 15 15 15 15 13 10 9 9 9 9 10 11 12 13 13 11 10 10 10 10 10
1 2 2 3 5 5 6 7 7 7 6 7 7 8 9 9 10 10 11 11 11 11 11 11 12 12 13 13 13 14 14 13 13 13 13 14 14 14 14 14 15 15 15 15 15 14 13 10 9 8 8 9 9 11 12 13 13 12 11 10 10 10 11
2 2 2 4 5 5 7 6 7 7 7 7 7 7 8 9 9 10 10 10 11 11 12 12 12 12 13 14 14 14 13 13 13 13 14 14 14 14 14 14 15 15 15 15 15 14 12 10 8 8 8 8 9 10 11 12 13 12 12 11 10 9 10
-2 -3 -1 3 4 5 6 5 6 7 7 7 7 7 8 9 9 10 10 10 10 11 11 11 12 12 12 13 13 13 13 13 13 14 14 14 14 14 15 15 15 15 15 15 15 13 12 10 9 8 8 8 9 10 11 12 12 12 12 11 11 10 10
-8 -7 -6 -2 2 4 5 5 5 6 6 8 8 7 8 8 9 9 9 10 11 10 11 12 12 12 12 13 12 13 13 14 14 14 14 14 14 14 15 15 15 16 15 15 15 13 12 11 9 8 8 8 9 9 10 11 12 12 12 12 12 11 11
-8 -6 -6 -6 -1 1 3 5 5 6 6 7 7 8 8 7 8 8 9 9 10 10 11 12 12 13 12 12 12 13 14 14 14 15 15 14 14 14 15 15 15 16 15 15 15 14 13 12 10 8 8 8 8 9 10 10 10 11 11 12 12 12 12
-7 -9 -7 -5 -4 -1 2 4 5 6 6 6 7 7 7 8 8 8 9 9 9 10 11 12 12 12 12 12 13 14 14 14 14 15 15 14 14 14 15 15 15 15 15 15 15 14 14 12 10 8 8 9 8 9 9 9 10 10 10 11 12 12 12
-6 -7 -6 -2 -0 -1 1 3 5 5 5 6 6 6 6 7 7 8 8 8 9 10 12 12 12 12 12 13 14 14 14 14 15 15 15 15 14 14 15 15 15 15 15 15 15 14 14 12 10 10 10 10 9 8 9 9 9 9 10 10 11 12 12
-2 1 2 2 3 2 2 3 5 5 5 5 6 6 7 7 7 7 7 8 9 10 11 11 12 12 12 13 13 14 14 14 15 15 15 15 15 15 15 15 15 15 15 15 15 15 14 13 12 11 11 10 9 8 8 8 8 8 9 10 11 11 12
2 5 4 4 4 4 4 4 4 5 5 5 6 7 8 8 7 8 8 9 10 10 10 10 11 11 12 12 13 14 14 15 15 15 15 16 15 16 15 15 15 15 15 15 15 15 14 14 13 12 11 11 10 9 8 7 7 8 8 9 10 11 12
6 7 7 5 5 5 6 6 5 5 5 5 6 7 8 8 8 8 9 9 10 10 10 11 11 12 12 13 13 14 14 15 15 15 16 16 16 16 16 15 15 15 15 15 15 15 15 15 14 13 13 12 12 10 8 7 8 8 8 9 10 11 13
9 9 9 7 6 6 8 8 6 5 6 6 7 7 7 8 8 9 10 10 11 11 11 11 12 13 13 13 13 13 13 14 15 16 16 16 16 16 15 15 15 15 15 15 15 15 15 15 15 15 14 14 13 11 8 7 7 8 8 8 10 12 13
10 10 9 9 9 8 7 8 8 7 7 7 7 7 7 8 9 9 10 11 12 12 12 12 12 12 12 12 13 13 14 14 16 16 16 16 16 15 15 15 15 15 15 15 15 15 15 16 16 16 16 15 13 11 10 9 8 8 8 9 11 12 13
9 9 9 9 10 9 8 8 8 8 9 9 9 8 8 9 9 10 10 11 11 12 12 12 12 11 11 11 12 13 14 14 15 15 15 15 15 16 16 15 15 15 15 15 15 15 16 16 16 17 16 16 15 13 13 12 11 9 10 11 12 12 13
7 7 7 7 9 9 10 9 8 8 9 10 10 11 10 9 9 10 11 11 11 12 12 11 11 11 10 11 12 13 14 14 15 14 15 15 15 15 16 16 16 15 15 15 16 16 17 17 17 17 17 17 16 15 15 14 14 13 13 12 12 12 13
5 5 4 5 5 6 8 9 8 9 9 9 10 10 10 11 10 10 11 11 11 12 11 10 10 10 11 12 13 14 14 15 14 15 15 15 15 16 16 15 15 15 16 16 16 17 17 17 17 18 17 17 17 16 16 16 16 15 15 14 13 13 13
4 4 3 3 3 2 3 4 5 7 9 10 11 11 11 11 11 11 11 11 11 11 10 11 11 12 12 14 14 14 14 14 14 14 15 15 16 16 15 15 15 16 16 17 17 17 17 17 17 18 18 18 18 17 17 17 17 16 16 15 13 13 14
3 1 2 2 0 -0 0 1 2 3 4 6 10 12 12 13 12 12 12 11 11 10 11 11 11 12 13 13 14 14 14 14 14 14 14 15 16 16 15 15 15 16 16 16 17 17 17 17 18 18 18 18 18 18 18 18 18 17 16 15 14 14 15
3 1 0 -1 -1 -1 0 -0 1 2 3 3 6 9 11 13 14 14 13 13 12 12 12 12 12 12 12 13 13 13 14 14 14 14 14 15 16 16 16 16 16 16 17 17 17 17 18 17 18 18 18 18 18 18 18 18 18 17 17 16 15 15 16
5 4 2 0 -0 -1 -2 -1 0 3 5 6 6 9 12 14 15 15 14 14 14 14 14 13 13 13 13 13 13 13 13 14 14 14 14 15 16 16 16 17 17 18 18 18 18 18 18 18 18 18 17 18 18 18 18 18 18 18 17 16 15 16 17
7 5 3 1 0 -1 -2 -1 -0 1 3 6 7 10 12 15 16 16 16 16 15 15 15 15 14 14 14 13 13 13 13 13 14 14 14 15 16 16 16 17 17 17 18 18 18 18 19 19 18 18 18 17 18 18 18 18 18 17 17 16 16 17 17
8 7 5 4 2 1 -0 -1 -2 -2 0 2 4 7 9 12 14 15 16 16 16 16 15 16 16 16 15 15 14 14 14 14 14 14 15 15 16 16 17 17 17 17 17 18 18 18 19 19 19 19 18 18 18 18 18 18 18 17 17 17 17 17 17
10 9 8 8 6 6 4 3 2 2 1 1 1 3 4 6 9 11 13 14 15 16 17 17 17 17 17 16 16 16 15 15 14 14 15 15 16 16 17 17 17 17 17 17 17 17 18 18 19 19 18 18 18 18 18 18 18 17 17 17 17 17 17
11 10 10 9 8 8 7 7 6 5 4 4 3 2 2 4 5 6 8 10 12 14 16 17 18 18 18 18 18 17 17 16 16 15 15 15 15 16 16 16 16 16 16 16 16 16 16 17 17 17 18 18 18 18 18 18 17 17 17 17 17 17 17
12 11 11 10 10 9 8 8 8 7 6 6 5 5 6 6 6 7 8 9 10 11 13 15 16 17 18 18 18 18 18 17 17 16 16 16 16 16 16 16 16 17 17 16 16 16 16 16 16 15 17 18 18 18 18 17 17 17 17 17 17 17 17
13 12 11 11 10 9 9 9 9 8 8 8 7 7 8 9 10 11 11 11 11 11 12 13 14 15 16 17 18 18 18 18 18 17 17 16 16 16 16 16 17 17 17 17 17 17 17 17 17 17 17 17 18 18 18 17 17 17 18 17 17 16 16
13 13 12 10 9 8 9 10 11 11 11 10 10 10 11 12 13 13 14 14 14 13 13 14 14 15 15 16 16 17 18 18 18 18 18 17 17 17 16 17 17 17 17 18 18 18 18 18 18 18 18 17 18 18 18 17 17 17 18 17 16 16 16

ECMWFFLT1_850_dewp_030.txt.gz
Dewpoint
10 11 12 13 14 14 15 15 15 15 15 15 14 12 12 12 11 10 7 5 6 6 7 8 8 9 9 9 9 8 8 8 8 8 8 9 9 9 8 7 8 8 8 8 8 8 8 7 8 7 8 8 9 9 9 10 11 13 14 15 16 15 15
9 10 11 12 13 14 15 15 16 15 14 14 12 11 11 11 11 10 8 5 5 5 7 7 7 8 8 8 9 9 9 8 8 8 9 9 8 8 8 8 8 7 7 7 7 7 7 8 8 7 7 8 8 9 9 10 10 11 13 14 15 15 15
8 9 10 12 13 14 14 15 15 15 14 13 12 10 10 10 9 9 8 6 5 5 6 7 6 7 8 8 9 9 9 9 9 10 10 10 8 8 9 8 9 8 7 7 7 7 7 7 7 7 7 8 8 10 11 11 11 10 12 13 14 15 14
8 9 10 11 13 14 14 15 15 15 14 13 10 8 8 8 7 8 8 7 6 4 5 6 6 6 7 7 8 9 10 10 10 11 11 11 10 10 11 10 10 9 8 8 7 7 7 7 7 7 7 7 8 10 12 12 12 11 12 13 13 14 14
8 9 9 11 12 13 14 14 14 15 14 14 11 8 8 7 8 8 7 7 6 4 3 4 4 5 6 6 8 8 9 10 10 11 12 12 11 11 12 11 11 10 10 9 8 8 8 7 7 7 7 7 8 10 11 11 11 11 12 13 13 12 14
6 9 9 11 11 13 13 14 14 13 13 14 14 12 10 10 9 8 8 7 6 6 5 4 4 4 5 5 6 7 8 9 9 10 12 11 11 12 12 12 12 11 11 11 10 10 9 8 8 7 7 7 8 9 10 11 11 11 12 13 13 12 13
3 8 9 10 10 12 13 13 13 13 13 14 14 14 14 12 10 10 10 9 7 7 7 6 4 4 4 4 5 6 7 8 8 9 10 10 10 11 11 12 12 12 12 12 11 11 10 10 9 9 8 7 8 9 10 10 10 11 12 12 12 12 11
-0 6 9 9 10 10 12 13 13 13 13 13 14 14 14 14 13 12 12 10 9 9 7 6 6 5 4 4 4 5 6 6 7 8 9 9 9 10 11 11 11 11 12 12 12 12 12 12 11 10 9 8 8 8 9 10 11 11 11 11 12 12 10
-0 7 9 9 9 9 10 12 13 13 13 13 13 13 14 14 14 13 12 11 11 11 8 7 7 6 5 4 3 3 4 5 6 6 7 8 8 9 9 10 10 10 11 12 12 12 12 12 12 11 10 9 9 9 9 9 10 10 12 12 11 11 11
4 8 10 9 8 9 9 11 12 12 12 13 13 13 14 14 14 14 13 12 11 10 9 9 10 10 7 5 5 4 4 4 5 5 5 6 7 7 8 8 9 9 9 10 11 12 12 12 13 12 12 11 10 10 9 9 9 10 11 12 11 11 11
7 9 10 10 9 8 8 9 10 11 11 12 13 13 13 13 14 14 13 13 12 11 10 10 12 12 9 6 6 7 6 5 6 5 6 6 6 7 7 8 8 9 9 9 10 11 12 12 12 13 12 12 11 11 10 10 9 9 11 12 12 11 11
9 8 7 8 10 10 9 9 10 10 9 10 11 13 13 13 13 13 13 14 13 12 13 13 12 13 11 9 8 7 7 6 7 7 7 7 8 8 8 8 9 9 9 8 9 10 11 12 12 12 13 13 12 12 12 11 10 10 9 11 12 11 11
8 8 6 5 7 9 9 8 8 8 8 7 10 12 13 13 13 13 13 14 13 13 14 14 13 13 13 11 10 9 7 6 6 7 7 8 8 9 9 9 9 10 10 9 9 10 11 11 12 12 13 13 13 13 13 13 12 11 10 10 11 10 10
4 5 7 7 5 4 5 6 6 7 7 7 10 12 13 13 13 12 12 13 13 13 14 14 14 14 13 12 12 10 8 7 7 6 7 7 8 8 9 9 9 10 11 10 10 10 10 11 11 12 12 13 13 13 13 13 13 13 11 11 12 11 9
0 -0 5 7 4 -1 0 2 3 4 5 5 8 11 12 12 12 13 12 12 13 13 13 14 14 14 13 12 12 10 9 9 8 8 7 8 8 8 8 9 9 10 11 12 10 10 10 11 11 12 12 12 13 13 13 14 14 13 13 12 12 10 8
-2 -7 -2 4 4 -2 -6 -5 -5 -3 0 2 5 8 11 12 12 12 12 12 13 13 13 14 14 13 13 12 11 10 10 10 10 9 8 8 8 8 8 9 9 10 11 12 11 10 10 11 11 12 12 12 13 13 13 14 14 13 13 11 10 8 7
-4 -3 -4 2 3 -5 -11 -9 -9 -9 -6 -4 0 5 8 10 10 11 12 13 13 13 13 13 14 14 12 12 11 11 11 10 10 9 9 8 8 9 9 9 10 10 11 12 12 11 11 11 12 12 12 13 13 13 13 14 14 14 13 11 10 8 7
-2 -1 -3 -0 1 -6 -13 -9 -9 -11 -11 -9 -3 0 3 6 9 10 11 12 13 13 13 13 14 13 12 12 12 12 11 9 9 9 9 9 9 9 9 10 10 11 11 12 12 12 12 12 12 12 13 13 13 13 14 14 14 13 13 12 11 9 7
-2 -5 -7 -1 4 -2 -11 -9 -6 -8 -9 -11 -6 -3 -1 4 7 8 8 11 13 13 13 13 14 13 12 12 13 12 10 10 9 9 9 10 10 10 10 10 11 10 11 12 12 13 13 13 13 13 13 14 14 13 13 14 14 14 13 12 11 10 7
-0 -0 -2 1 3 0 -7 -10 -8 -8 -10 -11 -8 -1 2 2 3 6 8 10 12 12 12 13 14 13 12 12 12 11 11 10 10 10 10 11 11 12 11 11 11 11 12 12 13 13 15 15 16 15 14 15 17 16 13 13 14 14 14 13 12 10 7
-1 2 4 3 3 1 -3 -8 -10 -10 -8 -8 -8 -2 2 1 4 9 11 11 11 11 11 12 13 13 12 10 9 9 9 9 10 10 11 12 12 12 11 11 11 11 12 13 13 13 14 15 16 16 15 16 18 18 16 15 14 14 14 13 11 10 8
2 6 8 8 5 2 -3 -7 -7 -9 -9 -6 -6 -4 0 4 8 11 12 12 12 12 11 11 12 12 12 10 8 7 7 8 9 9 10 11 11 11 11 11 11 11 12 13 13 13 14 14 14 15 17 18 18 17 17 17 15 14 14 13 10 9 8
7 9 9 6 4 2 0 -2 -3 -4 -4 -1 -2 -2 2 7 10 11 11 12 13 13 11 10 10 10 10 8 7 7 7 7 8 9 9 10 10 10 10 10 10 11 12 12 13 14 14 14 14 15 17 18 17 16 17 18 16 15 14 13 10 9 9
10 9 7 5 4 5 5 4 2 2 2 1 0 1 4 9 10 11 11 12 13 14 13 10 8 8 8 7 7 7 8 8 8 9 9 9 9 9 9 10 11 12 12 12 13 14 14 16 16 15 16 17 17 18 18 17 17 16 15 13 11 9 8
14 11 9 9 9 9 8 7 5 5 6 5 4 4 5 7 10 11 12 11 13 14 13 9 6 7 8 8 9 9 9 10 9 9 9 9 9 9 10 11 11 12 12 12 13 14 15 17 18 17 17 17 18 19 18 18 18 17 16 15 13 10 9
14 13 11 12 12 10 9 9 9 11 13 13 9 7 8 7 8 11 12 12 12 13 13 9 7 9 9 9 9 10 9 9 9 8 9 9 10 10 10 11 12 12 13 13 14 15 16 17 18 18 18 18 18 18 18 18 18 18 17 16 15 13 11
14 14 13 13 13 12 11 13 14 14 15 13 10 8 8 7 8 10 12 12 12 13 13 13 11 10 9 9 9 9 9 9 8 8 9 10 10 11 11 12 13 13 14 15 16 17 17 17 17 18 18 18 18 18 18 18 19 19 18 17 16 15 14
14 13 13 14 14 14 14 16 16 15 14 12 10 10 9 7 8 11 12 12 12 11 13 14 13 10 9 9 9 9 9 9 9 10 10 11 11 12 12 13 14 14 14 16 17 17 17 17 18 18 18 18 18 18 18 18 18 18 19 18 17 16 15
13 13 13 14 15 16 16 17 17 16 14 12 12 12 11 10 9 10 12 13 12 12 14 15 15 12 11 9 9 10 11 10 10 11 11 11 12 12 13 13 14 15 15 16 17 18 18 17 18 18 18 18 18 18 18 18 18 18 18 18 18 17 16
14 14 14 15 15 15 16 17 17 17 15 13 12 12 13 14 12 11 14 15 14 14 16 16 15 13 12 11 11 11 12 12 12 12 12 12 13 13 13 13 13 15 15 15 17 18 19 19 18 19 18 18 18 18 18 18 19 19 18 18 18 18 17
15 15 15 15 14 14 15 16 17 17 17 15 12 12 13 15 14 13 13 14 12 12 13 14 13 13 12 12 12 12 13 13 13 13 12 13 13 14 14 14 15 15 15 16 17 18 19 19 19 19 19 18 18 18 18 18 18 19 19 18 18 18 17
15 15 15 15 15 15 15 16 16 17 17 17 15 13 12 14 14 13 12 12 12 12 12 12 12 12 12 12 13 12 13 14 15 15 14 14 15 15 15 15 15 16 16 17 18 19 19 19 19 19 19 19 18 18 19 19 18 19 19 18 18 18 17
15 15 15 15 16 15 16 16 16 16 17 17 17 16 15 14 14 13 13 13 13 13 12 12 13 13 12 13 14 15 15 16 17 18 18 17 17 18 17 17 17 17 18 18 19 18 18 19 19 18 18 19 19 19 19 19 19 19 19 19 19 18 17
15 15 15 15 16 16 16 16 16 16 16 17 17 17 16 16 16 15 15 15 15 16 16 16 16 16 15 15 16 17 17 17 18 18 18 19 19 19 18 18 19 19 19 19 19 19 19 19 18 18 18 18 18 19 19 19 19 19 19 18 18 18 18
15 15 15 15 15 16 16 16 16 16 16 17 17 16 15 15 15 15 15 16 15 16 18 18 18 19 19 18 18 18 18 18 18 18 18 18 19 18 18 18 19 19 19 19 19 19 19 18 18 18 18 18 19 19 19 19 19 18 18 18 18 18 18
15 15 15 15 15 15 16 16 16 16 16 16 16 16 15 15 14 15 15 16 16 16 17 17 18 19 19 18 18 18 18 18 18 18 18 18 18 18 18 18 18 19 19 19 19 19 19 19 18 18 18 18 18 18 18 19 18 18 19 18 18 18 18
15 15 15 15 15 16 16 15 15 16 16 16 16 16 16 16 15 15 15 16 16 16 16 17 17 17 16 15 16 16 16 17 18 19 19 19 18 18 18 18 18 18 18 18 18 18 18 19 18 18 18 18 18 18 18 18 18 18 18 18 18 18 18
15 15 15 15 15 15 15 16 16 16 16 16 16 16 16 16 16 15 15 15 15 14 13 13 13 13 12 11 11 12 13 15 16 17 18 18 18 18 18 18 18 18 18 18 18 18 18 18 18 18 18 18 18 18 18 18 18 18 19 19 19 19 18

ECMWFFLT1_850_dewp_033.txt.gz
Dewpoint
5 5 9 12 14 14 15 16 16 16 17 17 17 17 16 16 17 17 15 9 5 5 5 5 5 5 5 5 5 5 5 6 6 6 6 6 6 8 10 10 9 8 8 11 10 7 7 9 13 15 13 10 11 12 12 12 13 13 14 15 16 16 15
4 4 7 10 13 14 14 16 16 16 17 17 18 17 17 16 16 17 15 10 5 4 4 5 5 5 4 4 5 5 5 5 6 6 6 7 7 7 9 9 9 8 7 10 12 11 8 7 8 11 10 8 9 11 12 12 13 13 12 13 15 16 15
5 3 5 8 11 14 14 15 16 17 17 17 18 17 17 16 14 14 13 10 6 4 4 4 5 5 5 5 5 5 5 6 6 6 7 7 8 8 8 8 9 9 7 7 10 12 12 9 7 8 8 7 7 9 11 12 12 12 12 11 12 15 16
5 2 4 6 9 13 14 15 16 17 17 17 18 18 17 16 14 12 10 8 5 3 3 4 4 5 5 5 6 6 5 6 6 7 7 7 7 7 8 8 8 9 9 7 6 10 12 12 9 7 7 8 7 7 9 11 11 12 12 11 11 13 15
3 3 3 4 8 12 14 15 16 17 16 17 17 18 18 17 17 15 11 9 6 3 1 2 3 4 5 5 5 6 6 6 6 6 7 7 7 8 7 7 7 7 8 8 7 7 9 11 11 9 7 7 8 8 8 9 10 11 12 12 11 12 15
0 2 3 3 5 10 14 15 15 16 16 16 17 18 18 18 18 17 15 12 10 7 4 2 3 3 3 4 5 5 5 5 6 6 6 7 7 8 7 6 7 7 6 7 8 7 7 8 10 10 9 7 7 8 9 8 9 10 12 13 12 12 14
1 3 3 3 4 9 13 14 14 15 16 15 16 17 17 18 18 17 17 15 12 11 9 5 3 2 2 3 3 4 4 4 5 5 6 6 6 6 6 6 6 6 7 8 8 8 8 7 8 9 10 8 7 9 10 9 8 9 11 12 13 12 13
0 3 4 5 7 9 12 14 14 14 15 15 15 16 17 17 17 17 17 16 14 14 13 9 5 1 -0 2 2 3 3 3 4 4 4 5 6 6 6 6 6 7 8 8 8 8 8 8 8 8 9 10 9 9 10 11 8 8 10 11 12 12 12
-1 2 4 5 6 7 9 12 13 13 14 15 15 16 16 17 17 17 17 17 16 16 15 12 9 4 -1 1 1 1 2 3 3 3 4 5 6 6 7 7 8 7 7 8 9 9 8 9 9 9 9 10 10 9 10 10 9 7 8 10 10 11 13
-2 0 3 5 5 5 6 9 12 13 14 15 15 15 16 16 16 16 17 17 16 16 15 14 13 11 5 -1 0 1 1 1 2 3 3 4 5 7 8 10 11 9 7 7 9 10 10 9 10 11 10 10 10 10 9 9 8 7 8 9 9 10 11
1 4 6 7 6 6 5 7 11 13 14 14 15 14 15 16 16 16 16 16 16 16 15 15 15 15 11 3 -1 1 0 -0 1 1 2 3 4 6 8 11 14 13 9 6 7 12 13 11 10 11 11 10 10 11 10 9 8 7 7 8 9 9 9
7 9 9 8 6 7 7 8 12 13 13 14 14 14 15 15 15 15 15 16 16 15 16 16 16 17 16 11 5 3 1 -0 -0 -0 -0 0 2 4 6 9 14 16 14 10 6 10 13 13 11 10 11 10 11 11 11 11 9 8 7 8 9 9 9
6 9 10 9 9 9 9 9 12 14 14 14 14 14 14 15 15 15 15 15 15 15 16 16 16 16 17 15 12 8 4 1 -0 -1 -0 -0 0 3 5 8 13 16 17 15 10 8 11 13 12 9 9 10 10 11 12 12 11 10 8 8 9 9 10
-0 6 9 10 10 11 12 11 12 14 15 15 14 14 14 14 14 15 15 15 15 15 15 15 16 16 17 17 15 12 8 5 2 0 0 1 1 3 5 8 12 15 16 16 14 10 10 12 12 9 8 9 10 11 12 12 12 11 10 8 8 10 10
-6 -0 6 8 10 11 11 11 11 12 15 15 14 14 14 14 14 14 14 15 15 14 14 15 15 16 17 17 16 12 10 10 8 5 4 5 5 5 6 9 11 13 14 16 16 13 11 13 14 12 8 8 9 9 11 12 12 12 11 9 9 9 11
-7 -5 -0 6 11 11 8 7 6 6 11 13 13 14 14 14 14 14 14 14 15 14 14 14 15 16 16 17 16 13 12 13 12 9 7 7 8 8 7 9 11 11 13 15 16 16 14 14 17 17 14 10 8 8 9 11 12 12 11 10 9 9 10
-6 -4 -5 2 9 11 11 11 6 1 2 4 6 10 13 14 15 14 14 14 14 14 14 13 14 15 16 17 17 16 15 14 12 11 9 8 9 10 9 10 11 11 11 13 15 17 16 15 16 18 18 16 11 9 8 9 11 12 12 11 11 10 10
-4 -4 -4 -3 1 5 10 12 11 8 7 6 6 7 9 12 14 14 14 13 13 13 14 13 14 15 16 17 17 17 16 14 12 12 11 10 10 10 10 11 12 12 12 13 14 16 16 15 15 16 18 18 17 14 11 10 10 10 12 12 11 11 12
-3 -3 -2 -2 -2 -1 4 8 10 11 11 12 12 12 11 10 12 14 14 13 13 13 14 13 13 14 16 17 17 17 16 15 13 12 11 11 11 11 12 13 13 12 12 13 14 15 15 14 13 13 15 17 18 17 15 13 11 10 11 12 12 12 12
-0 1 -1 -2 -1 1 3 6 9 9 8 8 9 11 12 12 12 13 13 13 13 13 14 13 13 14 15 16 16 16 17 15 13 12 12 12 12 13 13 13 12 12 12 13 14 14 14 14 13 13 13 15 17 17 16 15 15 13 12 11 12 12 12
0 0 -1 1 6 11 11 11 12 13 11 10 9 8 10 12 13 13 13 13 13 13 14 13 13 13 14 15 16 16 17 16 13 13 12 12 12 12 12 11 11 11 12 13 13 14 14 14 14 14 14 14 15 16 16 17 17 16 14 12 12 12 13
-3 -1 1 7 12 14 11 7 6 8 8 6 7 8 9 9 11 13 13 13 13 14 14 14 14 14 14 15 15 16 16 16 14 14 13 12 12 11 10 10 10 11 12 14 15 15 15 15 14 14 15 14 14 14 14 16 17 17 15 13 12 12 13
-0 5 9 12 13 12 10 7 7 7 5 2 1 6 8 8 9 11 12 13 13 13 14 14 14 14 14 15 15 16 17 16 15 15 14 13 12 10 10 10 11 12 13 14 15 16 16 16 16 16 15 14 14 13 12 16 18 17 17 16 15 13 12
11 13 14 14 13 13 14 14 12 8 5 2 1 3 6 8 9 11 11 12 13 13 14 15 15 14 14 15 16 17 17 16 16 15 14 13 11 10 10 11 11 12 12 13 14 16 17 18 18 17 17 16 16 15 14 15 17 17 17 18 17 15 14
15 15 15 15 14 15 15 11 7 6 7 9 11 10 8 7 9 11 12 12 13 14 14 15 15 15 15 15 16 17 17 16 16 15 14 12 11 10 11 12 12 13 13 13 15 17 18 19 19 19 18 18 18 17 16 16 16 16 16 17 17 17 16
15 15 15 14 15 15 14 10 11 15 16 17 17 16 14 12 11 11 13 14 13 13 14 14 15 16 16 16 17 17 16 15 15 14 13 12 12 12 12 13 14 15 15 15 17 18 18 18 19 19 19 19 19 18 17 16 17 17 16 16 17 17 17
15 15 15 15 15 15 14 14 17 19 18 18 16 14 14 16 15 13 14 15 14 13 14 15 16 17 17 17 17 17 17 16 15 14 14 13 13 13 13 15 16 16 16 17 19 19 19 19 18 19 19 19 19 19 19 18 17 17 17 16 16 16 18
15 15 14 15 16 16 15 17 19 19 19 18 17 16 16 16 16 15 15 15 15 15 14 15 16 17 18 18 18 18 18 17 17 16 15 14 13 14 14 16 17 17 17 18 19 19 19 19 19 19 19 19 19 19 19 19 18 18 18 17 17 16 18
15 15 15 15 16 16 17 17 19 19 19 18 18 18 19 17 16 17 16 16 16 16 15 15 17 18 18 18 18 18 18 19 18 17 15 14 14 16 16 16 17 18 19 19 19 19 20 20 19 19 19 19 19 19 19 19 19 18 18 18 18 17 17
15 16 16 15 16 16 16 17 18 19 19 18 17 16 18 19 18 17 18 18 18 18 17 16 16 18 18 19 19 19 18 19 20 18 17 17 17 18 18 18 18 19 19 19 19 20 20 20 20 20 19 19 19 18 18 18 18 18 18 18 18 18 18
15 15 16 16 16 16 16 17 18 18 18 19 17 15 17 19 19 18 19 20 19 19 19 18 18 19 19 19 20 19 19 19 20 20 20 19 19 19 19 19 19 19 19 19 19 20 20 19 19 19 19 19 18 18 18 18 18 18 18 18 18 18 18
15 15 15 16 16 16 16 17 17 18 18 18 18 16 17 19 19 19 20 20 19 19 19 19 19 20 20 20 20 20 19 19 20 20 20 20 20 20 19 19 20 20 20 19 19 19 19 19 19 19 19 19 19 18 18 18 18 18 18 18 18 18 18
15 15 15 15 15 16 16 17 17 17 17 17 17 17 17 18 18 18 19 19 19 19 18 18 19 19 20 20 20 20 20 19 19 19 20 20 20 20 20 20 20 19 19 19 19 19 19 19 19 18 18 18 18 18 18 18 18 18 18 18 19 19 19
15 15 15 15 15 16 16 16 16 17 17 17 17 17 17 17 18 18 18 18 19 19 18 18 19 19 19 19 19 20 20 20 19 19 19 19 19 19 19 19 19 19 19 19 19 19 19 19 18 18 18 18 18 18 18 18 18 18 18 18 18 19 19
15 15 15 15 15 15 15 16 16 16 16 17 17 17 17 17 17 17 18 18 18 19 19 19 19 19 19 19 19 19 19 19 19 19 19 19 19 19 19 19 19 19 19 19 19 19 18 18 18 18 18 18 18 18 18 18 18 18 18 18 18 19 19
15 15 15 15 15 15 15 15 15 16 16 16 16 16 16 16 16 17 17 17 18 18 18 19 19 19 19 19 19 18 18 19 19 18 18 18 18 18 18 18 18 18 19 19 19 19 19 19 19 19 19 19 19 19 19 19 18 18 18 18 18 18 19
15 15 15 16 16 16 16 16 16 16 16 16 16 16 16 16 16 16 17 17 17 17 18 18 18 18 18 18 18 18 18 18 18 18 19 18 18 18 18 18 18 18 18 19 19 19 19 19 19 19 19 18 18 19 19 19 19 18 18 19 19 19 19
15 15 15 16 16 16 16 16 16 16 16 16 16 16 16 16 16 16 16 17 17 17 17 17 17 17 17 17 17 17 17 17 17 18 18 18 18 18 18 18 18 18 18 18 18 18 19 19 19 19 19 19 18 19 18 18 18 18 18 18 18 18 18

ECMWFFLT1_850_dewp_036.txt.gz
Dewpoint
7 10 11 11 11 12 11 12 13 14 14 15 16 16 17 18 18 18 18 17 15 13 13 12 12 12 11 11 10 9 8 7 6 6 6 6 6 8 10 10 10 12 13 13 11 9 11 11 12 12 11 10 9 11 11 11 12 13 13 14 16 17 17
5 7 11 11 11 11 11 12 13 14 14 15 17 17 17 18 17 18 18 17 15 12 10 10 10 10 9 8 9 8 7 7 6 5 5 5 5 5 7 8 9 11 13 14 13 10 10 11 12 13 13 12 9 9 10 11 11 12 13 14 15 16 16
5 5 10 11 10 10 11 12 13 13 14 15 17 17 17 17 17 17 17 17 16 13 10 7 6 7 6 6 6 6 5 5 5 5 4 4 4 4 5 6 8 11 12 14 15 14 12 12 12 13 14 14 12 10 9 10 11 11 12 13 13 14 15
6 3 7 10 11 10 11 12 12 13 14 15 17 18 17 17 17 17 17 17 15 13 11 7 5 4 4 3 4 4 4 3 3 4 3 3 3 3 4 4 7 11 13 13 14 15 15 14 13 13 14 14 13 11 9 9 10 11 12 12 12 13 14
6 3 5 10 11 11 12 12 13 14 14 15 17 18 17 17 17 17 17 17 15 11 7 5 5 4 3 3 2 2 3 3 3 4 4 4 4 3 4 4 6 9 12 13 13 13 14 15 14 13 13 13 13 12 10 8 8 9 10 12 12 12 12
6 3 6 10 10 11 12 12 13 14 15 16 17 18 17 17 17 18 18 18 17 14 10 7 6 5 5 4 3 2 2 3 3 4 4 4 4 5 5 5 7 8 10 12 12 12 12 14 14 14 14 13 13 13 11 9 8 8 9 10 12 11 11
5 3 6 9 10 10 11 12 12 14 15 16 17 18 18 17 17 18 18 19 18 16 14 11 8 6 5 4 3 3 3 3 3 4 4 4 5 5 6 6 8 9 10 11 11 11 11 11 12 13 15 14 13 13 12 10 8 7 7 8 10 11 11
4 4 4 6 7 7 10 12 14 15 16 16 16 17 18 17 17 17 18 19 18 17 15 13 10 6 4 3 3 3 3 3 3 4 4 5 5 5 6 7 8 8 10 11 11 11 10 10 10 12 14 15 15 14 13 11 9 8 7 7 8 9 10
5 4 2 4 4 5 9 12 13 13 15 16 15 16 18 17 17 17 18 19 19 18 16 14 11 7 4 4 3 3 4 3 3 4 4 4 5 5 5 7 8 8 10 11 12 12 11 10 10 10 11 13 15 15 14 12 11 10 9 8 6 7 8
5 4 2 2 3 4 8 11 11 11 12 14 14 16 17 17 17 17 17 18 18 18 17 15 13 9 6 5 4 4 4 5 4 3 4 4 4 5 5 5 6 7 9 10 12 13 11 10 10 10 9 11 13 14 14 13 13 12 11 10 8 7 7
5 5 2 2 2 5 7 9 10 12 12 13 15 16 17 18 18 17 17 17 18 18 18 17 15 13 9 5 4 4 3 4 5 3 3 3 4 4 4 5 6 7 8 9 11 12 12 11 11 10 10 9 10 12 13 13 13 13 12 11 10 8 7
6 4 2 3 2 3 6 6 7 10 11 12 14 16 16 17 17 17 17 17 17 18 18 18 17 16 14 10 6 4 3 2 4 4 2 2 3 3 3 5 7 8 8 8 9 10 12 12 10 9 9 8 8 10 12 12 13 13 12 12 11 11 8
8 6 4 5 3 2 4 5 5 6 9 12 14 15 16 17 17 17 17 17 17 17 17 18 17 16 16 14 11 9 7 2 2 4 4 3 3 4 5 7 9 10 10 9 9 10 12 12 11 8 8 7 7 8 10 12 12 13 12 12 12 12 11
7 6 6 6 6 5 5 6 6 8 9 12 14 15 15 16 17 17 17 17 17 17 17 17 17 17 16 16 15 13 10 5 2 3 4 3 3 5 7 9 11 12 12 12 13 13 13 13 12 10 8 8 8 7 9 11 12 13 13 12 12 13 12
4 5 6 7 7 6 6 6 8 10 11 13 14 15 15 15 16 17 17 17 17 17 16 17 17 17 16 16 16 15 13 10 7 3 2 3 4 4 6 9 11 12 13 13 14 14 13 14 14 13 12 10 9 8 9 10 11 12 12 12 12 13 13
1 3 6 8 7 8 8 10 11 12 13 14 15 15 15 15 15 16 16 16 16 16 16 16 16 17 16 16 16 16 15 14 11 8 5 4 4 4 5 7 10 11 12 13 14 14 14 14 15 15 15 14 12 11 10 11 11 10 10 11 11 12 13
-3 1 5 8 9 9 8 8 12 14 14 14 15 15 14 14 15 15 16 16 16 16 16 16 16 16 16 16 16 16 16 15 14 12 9 6 4 5 6 7 9 10 11 13 14 14 14 14 15 16 16 16 15 14 12 12 11 9 8 8 9 10 12
-3 -0 4 7 7 7 7 6 5 6 10 12 13 14 15 14 14 15 15 15 15 15 15 15 15 16 16 16 16 17 16 16 15 14 12 9 7 6 6 7 8 10 11 12 13 14 14 14 14 15 16 17 17 17 15 13 11 9 8 7 7 8 10
-4 -3 1 3 2 3 9 12 9 6 8 12 14 14 14 14 15 15 14 14 14 15 15 15 15 15 16 16 16 17 17 17 16 15 13 11 9 8 8 8 9 9 10 10 12 13 14 14 13 14 14 15 17 17 17 16 13 11 10 10 8 8 8
-0 -0 -2 -1 3 6 9 12 12 11 11 11 13 13 13 13 14 14 14 14 14 14 14 14 14 15 15 16 16 16 17 17 17 16 15 14 12 12 11 10 9 9 10 11 12 12 13 13 13 13 14 14 15 16 17 17 16 15 13 12 10 10 9
-3 -2 -1 2 8 12 11 10 10 10 9 10 10 10 12 13 13 14 14 14 14 14 14 14 14 14 14 15 16 16 17 17 17 17 16 16 15 14 13 12 10 10 11 12 13 12 12 13 14 14 14 14 15 15 16 16 17 17 16 14 13 12 11
3 3 8 11 12 12 9 6 7 7 6 9 9 6 8 11 12 13 13 14 14 14 14 14 14 14 14 14 15 16 16 17 18 17 17 17 16 16 15 14 13 12 13 13 14 14 14 13 14 15 15 15 15 15 15 15 16 17 17 16 16 15 14
13 12 14 14 13 13 10 9 11 9 7 9 11 10 10 10 10 11 12 13 14 14 13 14 14 13 13 14 15 15 16 17 17 18 17 17 17 17 16 16 15 15 15 15 15 15 15 15 14 15 15 15 15 15 14 15 16 17 17 17 17 17 16
15 15 14 14 15 16 15 12 11 9 7 10 12 11 11 9 7 10 12 12 13 13 13 13 13 13 13 14 15 15 16 16 17 17 17 17 17 17 17 17 16 16 16 16 16 16 16 16 16 16 15 15 15 15 15 15 15 16 17 18 18 18 18
15 15 14 14 16 16 13 9 12 13 14 16 18 18 17 13 8 7 11 13 13 12 13 13 13 14 14 13 15 15 15 16 16 17 17 18 18 18 17 17 17 17 17 16 16 16 17 17 18 17 17 17 17 17 17 16 16 16 17 18 18 18 19
15 14 14 14 15 14 10 10 16 19 18 18 18 18 19 17 13 9 9 12 13 13 13 13 13 14 14 14 15 15 16 16 16 17 18 18 18 18 18 17 17 17 17 17 17 17 17 17 18 18 18 19 18 18 18 17 17 17 16 17 18 18 18
15 15 14 13 14 14 14 14 18 19 18 18 17 17 18 17 15 13 12 12 13 13 13 14 14 14 14 14 15 15 16 16 16 17 18 19 19 19 18 18 18 18 18 18 18 18 18 17 18 18 19 19 19 19 19 18 18 18 17 17 18 18 18
15 16 15 13 14 16 16 16 18 19 19 19 18 18 19 19 17 16 14 14 14 14 14 14 14 14 14 15 15 16 16 17 17 17 18 19 19 20 19 19 19 19 19 19 19 19 18 18 18 18 18 19 19 19 19 19 19 19 18 18 18 18 18
15 15 15 15 15 17 16 17 18 18 19 19 18 16 17 19 19 18 16 15 16 16 15 15 15 15 15 15 15 16 17 18 18 18 19 19 20 20 20 19 19 19 19 19 19 20 19 19 19 18 18 19 19 19 19 19 19 19 19 19 19 19 18
15 15 15 15 16 17 16 16 18 18 19 19 18 15 15 18 19 18 18 18 17 17 16 15 15 16 16 16 16 16 17 18 19 19 19 20 20 20 20 20 19 20 20 20 19 20 20 20 19 19 19 19 19 19 19 19 19 19 19 19 19 19 19
15 15 15 15 16 16 15 16 17 18 18 19 18 16 17 19 19 19 19 20 19 18 18 16 16 17 17 17 17 17 17 18 19 20 20 20 20 20 20 20 20 19 20 20 19 19 20 20 20 20 19 19 19 19 19 19 19 19 19 19 19 19 19
15 15 15 15 15 15 15 16 17 17 17 18 18 17 18 20 20 20 20 20 19 19 19 17 17 18 18 18 19 18 18 18 19 20 20 20 20 21 21 20 20 20 20 20 20 19 19 19 20 20 20 20 19 19 19 19 19 19 18 19 19 18 18
15 15 15 15 15 15 16 17 17 17 17 17 17 17 18 18 18 19 19 19 18 19 19 19 19 19 19 19 19 19 19 19 19 19 20 20 20 20 20 20 20 20 20 20 20 20 19 19 19 19 19 20 19 19 19 19 18 18 19 18 18 18 18
15 15 15 15 15 15 16 16 16 16 17 17 17 17 17 17 17 17 17 18 18 19 19 19 19 20 20 19 20 20 20 20 19 19 19 19 20 20 20 20 20 20 20 20 20 19 19 19 19 19 19 19 19 19 18 18 18 18 18 18 19 19 18
15 15 15 16 16 15 16 16 16 17 17 17 16 17 17 17 17 17 17 17 18 19 19 19 19 19 19 19 19 19 19 19 19 19 19 19 19 19 19 19 19 19 19 19 19 19 19 19 19 19 19 19 19 18 18 18 19 19 19 19 19 19 18
15 15 16 16 16 16 16 16 16 16 16 16 16 16 16 16 17 17 17 17 18 19 19 19 19 19 19 19 19 19 19 19 19 19 18 19 19 19 19 19 19 19 19 19 19 19 19 19 19 19 19 19 19 19 18 18 19 19 19 19 19 19 19
15 16 16 16 16 17 16 16 16 16 16 16 16 16 16 16 16 16 17 17 18 18 19 19 19 19 19 19 19 19 18 18 18 18 18 19 19 19 19 19 19 19 19 19 19 19 19 19 19 19 19 19 19 19 19 19 19 19 19 19 19 19 19
15 15 15 16 16 16 16 16 17 17 17 17 16 16 16 16 16 16 16 16 17 17 18 18 18 18 18 18 19 18 18 18 19 19 19 19 19 19 19 19 19 19 19 19 19 19 19 19 19 19 19 18 19 19 19 19 19 19 19 19 19 19 19

ECMWFFLT1_850_dewp_042.txt.gz
Dewpoint
12 13 13 14 14 14 14 14 13 14 14 14 14 14 14 15 15 15 15 15 15 15 15 15 15 15 15 15 15 14 13 11 10 10 9 9 8 8 8 7 6 6 5 5 5 5 6 7 9 9 9 9 9 9 9 10 12 13 13 13 13 14 14
12 13 13 14 14 14 14 14 14 14 14 14 14 14 14 14 15 15 15 15 15 15 15 15 14 14 13 13 14 14 13 12 10 9 9 9 9 8 7 7 5 4 5 6 6 6 7 7 9 9 9 9 9 9 9 9 10 12 13 13 13 14 14
12 12 13 14 14 14 14 14 14 13 14 14 14 14 14 14 14 15 15 15 15 15 15 15 15 14 12 12 13 13 13 12 11 9 8 8 8 8 8 7 5 4 5 6 6 7 6 7 9 9 9 9 10 9 9 9 9 10 12 13 13 13 13
12 12 13 13 14 14 14 14 14 14 14 14 14 14 14 14 15 15 15 15 15 15 15 15 15 15 14 13 13 12 12 12 11 9 7 7 7 7 7 7 5 4 5 7 7 6 6 6 7 8 9 9 10 10 10 10 10 10 11 11 12 12 12
12 12 13 13 14 14 14 14 14 14 14 14 14 14 14 15 15 15 15 15 15 15 15 15 15 15 15 14 14 12 12 11 10 9 7 6 6 6 6 5 5 4 5 6 7 7 6 6 6 7 8 8 8 9 10 10 10 10 11 11 11 11 12
12 12 12 13 13 14 14 14 14 14 14 14 14 14 14 15 15 15 15 15 15 15 15 16 15 16 15 15 15 14 13 12 11 9 8 7 6 6 5 5 4 4 4 5 6 6 7 6 6 6 7 7 7 8 9 9 10 10 10 10 10 10 11
12 12 12 13 13 14 14 14 14 14 14 14 14 14 14 15 15 15 16 16 16 16 16 16 16 16 16 15 15 15 14 13 12 10 9 8 8 7 5 5 4 4 4 4 5 6 6 6 5 6 6 7 7 7 7 8 8 9 9 9 10 10 10
11 12 12 12 13 13 14 14 14 14 14 14 14 14 15 15 15 16 16 16 16 16 16 16 16 16 16 16 15 15 14 13 12 11 10 10 9 8 7 6 5 4 4 4 5 5 4 4 4 4 5 6 6 6 6 6 7 7 8 8 8 9 9
11 11 11 12 12 13 13 13 14 14 14 14 14 15 15 15 15 15 15 16 16 17 16 16 17 16 16 16 16 15 14 14 13 11 10 10 9 9 8 7 5 4 4 4 5 5 4 3 3 3 4 5 5 5 5 5 5 6 7 7 6 6 7
10 11 11 12 12 13 13 13 14 14 14 14 14 15 15 15 15 15 15 16 16 16 16 16 17 17 17 17 16 16 15 14 13 12 11 10 10 9 8 7 6 5 4 4 5 4 3 2 3 3 4 4 5 4 4 4 4 5 6 5 5 5 5
10 11 11 12 12 12 13 14 14 14 14 14 14 14 15 14 14 15 15 16 16 16 16 17 17 17 17 17 16 16 16 15 14 12 11 10 9 9 8 7 7 7 6 5 4 4 3 2 2 3 4 4 4 4 4 3 3 3 4 4 4 4 5
9 11 11 12 12 12 13 13 14 14 14 14 14 14 14 14 14 15 15 16 16 16 17 17 17 17 17 17 17 17 16 15 15 13 12 10 9 9 8 8 8 7 6 5 4 4 3 2 3 3 3 4 3 4 4 3 3 3 3 3 4 4 5
10 10 10 11 12 12 13 13 13 14 14 14 14 14 14 14 14 15 15 16 16 16 16 16 17 17 17 17 17 17 17 16 15 14 12 11 10 9 9 8 7 7 6 5 4 3 3 3 3 3 3 3 3 3 3 4 5 4 4 4 4 4 5
9 10 10 11 11 11 12 12 13 14 14 14 14 14 14 14 14 15 15 15 16 16 16 16 16 17 17 17 17 18 17 17 16 14 13 11 10 9 9 9 9 8 6 5 4 3 2 2 2 2 3 3 4 4 4 5 5 5 5 5 5 6 5
10 9 10 11 11 11 11 11 13 13 13 14 14 14 14 14 14 15 15 15 15 16 16 16 16 17 17 17 18 18 17 17 16 15 14 13 11 10 10 10 10 9 7 6 4 3 2 2 2 3 3 3 4 4 4 5 5 5 4 5 5 5 6
9 10 10 10 10 11 11 11 12 12 13 13 13 14 14 14 15 14 14 15 15 16 16 16 17 17 17 18 18 17 17 17 17 16 15 14 13 11 10 10 10 10 9 7 6 4 3 3 3 3 3 3 4 4 4 5 4 3 3 3 4 4 5
8 9 10 10 10 10 11 11 11 12 13 13 12 12 13 13 14 15 15 15 15 16 17 17 17 18 18 18 18 17 17 17 17 17 16 16 15 14 12 11 11 11 10 9 7 5 4 3 3 3 3 3 4 4 5 4 3 2 2 3 4 6 7
8 9 9 9 9 10 10 10 11 12 12 11 11 11 11 12 14 15 15 16 16 17 17 17 18 18 18 18 18 17 18 18 17 17 17 17 16 16 15 13 12 12 11 10 9 7 6 5 4 3 3 3 4 4 4 3 3 3 3 3 4 6 8
9 10 9 10 10 9 10 10 10 11 11 10 10 10 10 11 12 13 14 15 16 17 17 17 18 18 18 18 18 18 18 18 18 18 18 17 17 17 16 15 14 13 13 12 11 9 8 6 5 4 4 3 4 3 3 2 2 3 3 4 5 7 9
12 11 11 11 11 10 10 11 11 11 11 11 10 10 11 11 12 13 13 14 15 16 16 17 17 17 18 18 17 18 17 17 18 18 18 18 18 17 17 16 15 14 14 13 12 11 9 8 6 5 4 4 3 3 3 2 1 2 3 5 6 7 10
15 14 13 13 12 12 12 12 13 13 13 13 13 13 14 14 14 14 14 15 15 16 16 16 17 17 17 17 17 17 17 18 18 18 18 18 18 18 17 17 16 15 14 14 13 12 10 9 8 7 6 5 5 5 4 2 1 3 4 5 7 9 11
16 15 15 15 14 14 14 14 14 14 14 14 15 15 15 15 16 16 16 16 16 16 16 16 17 17 17 17 17 17 18 18 18 18 18 18 18 18 17 17 17 16 15 14 13 13 12 11 10 9 8 7 7 7 6 4 4 7 7 8 9 11 13
15 15 15 15 14 14 14 14 14 14 14 15 15 15 15 16 16 16 16 16 16 16 17 17 17 17 17 17 17 17 17 17 17 18 18 18 18 18 17 17 17 16 15 15 14 13 12 12 11 10 10 9 9 9 8 7 8 10 10 12 13 14 14
16 16 16 15 14 13 13 13 13 13 14 14 14 15 15 15 15 16 16 16 16 17 17 17 17 17 17 17 17 17 17 17 17 17 17 17 18 17 17 17 17 17 16 16 15 14 13 12 11 10 10 10 10 10 10 10 11 12 13 14 15 15 16
16 16 16 16 15 14 14 13 12 12 11 11 12 13 13 14 14 15 15 16 16 17 17 17 17 17 17 17 17 17 17 17 17 17 17 17 17 17 17 17 17 17 16 16 16 15 14 13 13 11 11 10 10 11 12 12 13 14 15 15 16 16 16
16 16 15 14 13 14 13 12 11 11 11 11 12 12 12 12 13 13 14 14 15 16 16 17 17 17 17 17 16 17 17 17 17 17 17 17 17 17 17 17 17 17 16 16 16 16 15 15 14 14 12 11 11 11 11 12 14 15 15 16 16 16 16
16 16 15 14 12 11 10 9 6 5 7 9 11 11 11 12 13 14 14 14 14 14 15 15 15 15 16 16 16 16 16 16 17 17 17 16 16 16 16 16 17 17 17 16 16 16 16 16 15 15 15 14 13 13 13 13 14 14 15 15 16 16 16
14 14 14 14 12 9 7 6 3 3 4 4 4 4 6 8 10 13 14 14 14 14 14 15 15 14 14 14 14 15 15 15 15 16 16 16 16 17 17 17 17 17 17 17 17 17 16 16 16 16 16 15 15 15 14 15 15 15 16 16 16 16 16
14 14 13 12 11 11 10 7 3 4 8 9 7 5 4 4 5 9 12 13 13 13 12 13 15 15 14 13 13 13 13 13 14 14 15 16 16 16 16 17 17 17 17 17 17 17 17 17 17 17 16 17 16 16 16 16 16 16 16 17 17 17 17
14 14 13 12 11 12 14 13 10 10 11 12 11 9 9 10 10 11 14 16 14 12 12 12 13 14 15 14 13 12 12 12 13 13 14 15 16 16 17 17 17 17 17 17 17 17 17 17 17 17 17 17 17 17 17 17 17 17 17 18 18 18 18
14 14 14 13 12 12 14 15 14 15 15 15 15 13 12 14 17 17 18 18 17 15 14 13 12 14 15 15 14 13 13 13 13 13 14 15 15 16 17 17 18 18 18 18 18 18 18 18 18 18 18 18 18 18 18 18 18 18 18 18 18 18 18
15 15 15 14 14 15 16 16 16 16 17 17 17 16 14 15 18 19 19 19 18 18 17 15 14 15 15 15 14 14 14 13 13 13 14 15 16 16 17 17 18 18 18 18 18 18 18 18 18 19 19 19 19 19 19 19 19 19 19 19 19 19 19
15 15 16 15 15 15 16 16 16 17 17 16 16 16 15 14 16 18 19 19 19 19 18 17 17 16 15 15 15 14 14 14 14 14 14 15 16 17 17 18 18 18 18 19 19 19 19 19 19 19 19 19 19 19 19 19 19 19 19 19 19 19 19
15 15 15 15 15 15 15 16 16 16 16 16 15 14 14 13 14 15 17 18 19 19 18 19 18 17 16 16 15 15 15 15 15 15 15 16 17 18 18 18 18 18 19 19 19 19 19 19 19 19 19 19 19 19 19 19 19 19 20 20 20 19 19
14 14 14 14 15 15 15 15 16 15 15 14 14 14 15 15 14 15 16 17 18 18 18 18 19 19 18 17 16 15 15 15 16 15 16 16 17 18 18 19 19 19 19 19 19 19 19 19 19 20 20 20 20 20 20 20 20 20 20 20 20 20 20
14 14 14 13 14 14 15 16 16 15 15 14 14 15 16 16 15 16 17 17 17 18 17 18 19 20 19 19 18 17 17 17 17 17 17 18 18 18 18 19 19 19 19 19 19 20 20 20 20 20 20 20 20 20 20 20 20 21 20 20 20 20 20
14 14 13 13 13 13 15 15 16 16 16 15 15 15 16 16 16 16 17 17 18 18 18 18 19 19 20 19 19 18 18 18 18 18 18 18 18 19 19 19 19 19 20 20 20 20 21 21 21 21 21 21 20 20 20 20 20 20 20 20 20 20 20
15 14 13 13 13 14 14 15 16 16 16 16 16 15 15 15 16 16 16 17 17 18 18 19 19 19 19 19 19 19 19 19 19 19 19 20 20 20 20 20 19 20 21 21 21 21 21 21 20 20 21 21 21 20 20 20 20 20 20 20 20 20 19

ECMWFFLT1_850_dewp_045.txt.gz
Dewpoint
11 12 13 13 14 14 14 14 14 14 14 14 14 15 15 15 15 15 15 15 15 15 15 15 15 15 15 15 15 15 15 15 15 14 13 12 11 10 9 9 9 9 9 9 8 8 7 6 7 7 9 8 8 9 9 9 11 13 13 13 13 13 13
10 11 13 13 14 14 14 14 14 14 14 14 14 15 15 15 15 15 15 15 15 15 15 15 15 15 15 15 15 15 15 15 15 14 14 13 11 10 9 9 9 9 9 8 8 8 7 7 6 6 8 8 8 9 9 9 10 12 13 13 13 12 13
10 11 12 13 14 14 14 14 14 14 14 14 14 14 15 15 15 15 15 15 15 15 15 15 15 15 15 15 15 15 15 15 15 14 14 13 12 11 10 9 10 9 9 8 8 8 7 7 6 6 7 8 8 9 10 9 9 9 11 12 13 12 12
10 11 12 12 13 13 13 14 14 14 14 14 14 14 14 15 15 15 15 15 15 15 15 15 15 15 14 14 15 15 15 15 15 14 13 12 12 11 10 10 10 10 9 9 8 7 6 6 6 6 8 8 8 8 9 9 9 9 9 10 12 12 12
10 11 11 12 13 13 13 13 14 14 14 14 14 14 14 14 15 15 15 15 15 15 15 15 15 15 14 14 14 15 15 15 14 13 13 13 12 12 11 10 10 10 10 9 9 8 6 5 6 7 8 8 7 8 8 9 9 9 9 9 10 11 12
10 11 11 12 13 13 13 13 13 13 13 13 14 14 14 14 15 15 15 15 15 15 15 15 15 15 14 15 14 15 15 15 15 14 13 12 12 12 11 9 9 9 9 8 8 8 7 5 6 6 7 7 7 7 8 9 9 9 9 9 9 10 11
9 10 11 12 12 13 13 13 13 13 13 14 14 14 14 14 15 15 15 15 15 16 15 15 15 15 15 14 15 14 14 15 14 14 14 13 12 12 10 9 9 8 8 8 7 7 7 5 5 6 6 6 6 6 7 8 9 10 10 10 10 10 10
9 10 11 12 12 13 13 13 13 13 13 14 14 14 14 14 15 15 15 15 15 16 16 15 15 15 15 14 15 15 15 14 14 13 14 13 13 11 10 8 8 7 8 8 7 7 6 5 5 6 6 6 5 5 6 7 7 8 9 10 10 10 10
8 9 10 11 12 12 13 13 13 13 14 14 14 14 14 14 15 15 15 15 15 15 15 15 15 15 15 15 15 15 15 15 14 14 13 14 13 11 10 8 8 8 8 8 7 6 6 4 4 5 6 6 5 5 5 6 6 7 8 9 9 9 9
8 9 9 11 11 12 13 13 14 14 14 14 14 14 14 14 14 15 15 15 15 15 15 15 15 15 15 15 14 14 15 15 15 14 14 14 13 11 10 9 8 8 8 7 7 6 5 4 4 5 6 6 5 5 5 5 6 6 6 6 7 7 7
8 9 9 10 11 12 13 13 14 14 13 14 14 14 14 14 15 15 15 15 15 15 15 15 15 15 15 15 15 15 15 15 15 15 14 14 13 12 10 9 9 8 8 7 7 6 5 4 4 4 5 5 5 4 3 4 4 5 5 5 5 5 5
9 9 10 10 11 12 13 13 14 13 13 14 14 14 14 14 14 15 15 15 15 15 15 15 15 15 15 15 15 15 15 15 15 15 15 15 14 13 11 10 10 9 8 7 6 6 5 4 4 4 4 4 4 3 3 3 4 4 4 4 4 4 4
9 10 10 11 11 12 13 13 13 13 14 14 14 14 14 14 14 14 15 15 15 15 15 15 15 15 15 15 15 15 15 15 15 15 15 15 14 14 13 12 10 9 8 7 6 6 5 5 4 3 3 3 4 3 2 3 3 3 4 4 4 4 3
9 10 10 11 11 12 13 13 13 13 14 14 14 14 14 14 14 15 15 15 15 16 15 15 15 15 15 15 15 15 15 15 15 15 15 15 14 14 13 13 11 10 9 8 7 6 5 4 4 3 3 3 3 3 2 3 3 3 3 4 4 3 3
10 10 11 11 12 12 13 13 13 13 14 14 14 14 14 14 14 15 15 15 15 16 16 16 16 16 16 16 15 15 15 15 15 15 15 15 15 14 14 14 13 12 11 10 8 7 5 4 4 3 2 2 2 2 2 3 3 3 3 3 3 3 3
9 10 11 11 12 12 12 13 13 13 13 14 14 14 14 14 14 15 15 15 15 16 16 16 16 16 16 16 15 15 15 15 15 15 15 15 15 15 14 14 14 13 12 12 10 8 6 5 4 4 2 2 1 2 2 2 2 3 3 3 3 3 3
9 10 11 11 11 12 12 12 13 13 14 14 13 14 14 14 14 14 14 15 15 16 16 16 16 16 16 16 15 15 16 15 15 16 16 16 15 15 15 15 14 14 13 13 11 9 7 6 6 4 3 2 2 1 1 1 2 2 2 3 3 3 3
9 9 10 11 11 12 12 12 13 13 13 13 14 13 13 13 14 14 15 15 15 15 16 16 16 17 16 16 16 16 16 16 16 16 16 16 16 16 16 16 15 15 15 14 13 11 9 8 6 5 4 3 2 1 1 1 1 2 2 2 3 3 4
9 9 9 11 11 11 12 12 12 13 13 13 13 13 12 12 13 13 13 14 15 15 16 16 16 17 17 16 15 16 16 16 16 16 16 16 16 17 17 17 16 16 16 15 14 13 11 9 7 5 5 4 3 2 2 1 1 2 2 3 3 3 4
8 9 10 10 11 11 12 12 12 12 13 13 12 12 12 12 12 12 13 14 15 15 15 16 16 16 16 15 15 15 15 15 16 16 16 17 17 17 17 17 17 17 16 16 15 15 13 11 8 6 6 5 4 4 3 3 3 2 3 3 3 4 5
9 9 10 10 11 12 11 12 12 12 13 13 13 13 13 13 13 14 14 14 15 15 15 15 16 15 15 14 15 15 15 15 16 16 17 17 17 17 17 17 17 17 17 17 16 16 14 13 10 8 5 4 5 5 5 3 3 3 3 4 4 5 7
11 9 10 10 11 11 11 12 12 12 12 12 13 13 13 14 14 14 14 14 14 14 15 15 15 15 14 14 15 15 15 16 16 17 17 17 17 17 17 18 18 17 17 17 17 16 16 15 12 9 6 5 6 6 5 3 4 4 4 4 5 7 9
13 11 10 10 10 11 11 11 12 12 12 13 13 13 13 14 14 14 14 15 14 15 14 15 15 15 15 15 15 15 16 16 17 17 17 17 17 18 18 18 18 18 18 18 17 17 16 15 14 12 9 8 7 6 5 4 4 5 5 5 7 9 11
16 14 12 12 12 11 11 12 11 12 12 12 13 13 13 13 13 14 14 15 15 15 15 15 15 15 15 16 16 16 16 16 16 17 17 17 17 17 18 17 18 18 18 18 18 17 17 16 15 14 13 11 9 8 7 6 5 6 6 7 8 10 11
18 18 16 15 14 13 13 13 13 13 13 13 13 14 13 13 13 13 14 14 14 15 15 16 16 16 16 16 15 16 16 16 16 16 17 17 17 17 17 17 17 17 17 18 18 17 17 17 17 16 15 14 13 12 11 10 9 8 9 8 9 10 11
18 18 18 18 17 16 16 16 15 15 15 15 16 16 15 15 15 15 15 15 15 15 15 15 15 15 15 15 16 16 16 16 16 16 17 17 17 17 17 17 17 17 17 18 18 18 17 17 17 17 16 16 15 15 14 13 12 12 11 11 11 11 12
17 17 17 17 17 17 17 17 16 16 17 17 17 17 16 16 16 16 16 17 16 17 16 16 16 16 16 16 16 17 16 16 17 17 17 17 17 17 17 17 17 17 17 17 17 17 17 17 17 17 17 16 16 16 15 15 14 14 13 13 13 13 13
17 17 16 14 13 13 14 14 14 14 14 15 16 16 16 16 16 17 17 17 17 17 17 17 18 17 17 17 17 17 17 17 17 17 17 17 17 17 17 17 17 17 17 17 17 17 17 17 17 17 17 17 17 16 16 16 15 15 15 15 14 14 14
16 17 17 16 14 10 7 6 7 8 8 8 9 11 12 14 15 16 16 16 16 17 17 17 17 17 17 17 17 17 17 17 17 18 18 18 17 17 17 17 17 17 17 17 17 17 17 17 17 17 17 17 17 17 16 16 16 16 16 16 15 15 15
16 17 17 17 17 14 9 5 5 6 5 5 4 3 3 6 8 11 13 14 15 15 15 15 16 16 16 16 16 16 16 16 16 17 17 17 17 17 17 17 17 17 17 17 17 17 17 17 17 17 17 17 17 17 17 17 17 16 16 16 16 16 16
17 17 17 17 18 17 15 14 12 11 10 9 8 5 3 2 3 4 8 10 12 13 14 14 14 14 14 14 14 14 15 15 15 15 15 16 16 16 17 17 17 17 17 17 17 17 17 17 17 18 17 17 17 17 17 17 17 17 17 17 17 17 17
16 17 17 17 17 17 16 16 15 14 14 12 11 9 7 5 5 5 7 9 10 11 11 12 12 12 12 12 12 13 14 14 14 14 14 14 15 15 15 16 16 17 17 17 17 18 18 18 18 18 18 18 18 18 18 17 18 18 18 18 18 18 18
16 16 16 16 16 16 16 16 15 15 14 13 13 12 10 9 9 8 9 11 12 13 13 13 13 13 13 12 12 13 14 14 13 13 14 14 14 15 15 16 16 17 17 17 17 18 18 18 18 18 18 18 18 18 18 18 18 18 19 19 19 19 19
15 15 15 16 16 15 15 15 14 14 13 13 13 12 11 11 11 10 10 10 12 13 15 15 16 16 15 15 14 14 14 14 14 14 14 14 15 15 16 16 17 17 18 18 18 18 18 18 18 18 18 18 18 19 19 19 19 19 19 20 20 20 19
14 14 14 15 16 16 15 15 14 14 13 13 13 13 12 11 12 11 10 9 9 10 12 14 16 17 17 17 16 16 15 15 15 15 15 15 15 15 16 16 17 18 18 18 18 18 19 19 19 19 19 19 19 19 19 20 20 20 19 19 20 19 19
14 14 14 15 15 16 16 16 15 15 14 14 14 13 12 12 12 12 12 12 11 10 11 13 15 17 18 18 18 17 16 16 16 16 16 16 15 15 15 16 17 18 18 19 19 19 19 19 19 19 19 20 20 20 20 20 20 20 20 20 20 19 20
14 14 14 14 14 15 15 15 15 15 15 15 14 14 13 13 14 14 14 15 15 14 15 15 16 17 18 19 19 18 17 17 17 17 17 16 16 16 16 17 17 18 18 19 19 19 20 20 20 20 20 20 20 20 20 20 20 20 20 20 20 20 20
14 14 14 13 14 15 15 15 15 15 15 16 15 15 14 14 14 14 15 15 15 16 16 17 17 17 18 19 20 19 18 18 18 17 17 17 17 17 17 17 17 18 19 19 20 20 20 20 20 20 20 20 20 21 21 20 20 20 20 20 20 20 20

ECMWFFLT1_850_dewp_048.txt.gz
Dewpoint
12 13 13 13 14 14 14 14 14 14 14 14 14 15 15 15 15 15 15 15 15 15 15 15 15 15 15 15 14 14 14 14 14 14 13 12 12 11 10 10 10 10 9 9 9 9 9 9 10 11 11 11 10 10 9 10 10 11 12 13 13 13 13
11 13 13 13 13 13 14 14 14 14 14 14 14 14 15 15 15 15 15 15 15 15 15 15 15 15 15 15 15 15 15 14 14 14 14 13 12 12 11 10 10 10 10 9 9 9 9 9 10 10 10 10 10 9 9 9 9 10 10 12 13 13 13
11 11 12 13 13 13 14 14 14 14 14 14 14 14 15 15 15 15 15 15 15 15 15 15 15 15 14 14 15 15 15 15 14 14 14 13 12 12 11 11 10 10 10 10 9 9 9 9 9 9 9 10 9 9 9 8 8 9 10 11 12 12 13
10 11 11 12 13 13 13 14 14 14 14 14 14 14 14 15 15 15 15 15 15 15 15 15 15 15 15 14 14 15 15 15 14 14 13 12 12 12 12 12 11 10 10 10 9 9 9 9 9 9 9 9 9 9 9 8 8 9 9 9 10 11 12
10 10 11 11 12 13 13 13 14 14 14 14 14 14 14 14 15 15 15 15 14 14 14 14 14 15 15 14 14 14 14 14 14 13 13 12 12 12 12 12 11 11 10 10 9 9 9 8 8 8 9 9 9 8 9 8 8 9 9 9 9 10 11
10 10 10 11 11 12 13 13 13 13 14 14 14 14 14 15 15 15 15 15 15 14 14 14 14 15 15 15 14 15 15 15 14 14 13 12 12 12 12 11 11 11 10 10 9 9 9 9 8 8 7 7 7 8 7 8 8 8 9 9 9 9 9
9 10 10 10 11 12 12 13 13 13 13 14 14 14 14 15 15 15 15 15 15 15 14 14 14 14 15 14 15 15 15 15 14 14 13 13 12 12 11 11 11 11 10 10 10 9 9 9 8 8 7 6 6 7 7 7 8 8 8 9 9 9 9
8 9 10 10 10 11 12 12 13 13 13 14 14 14 14 14 15 15 15 15 15 15 14 14 14 14 14 14 15 15 15 15 14 14 14 13 13 12 11 11 11 10 11 11 10 10 9 8 8 8 7 6 5 6 7 7 7 8 8 9 9 9 9
8 8 9 10 10 10 11 12 13 13 13 14 14 14 14 14 15 15 15 15 15 15 15 14 14 14 14 14 14 14 15 14 14 14 14 14 13 12 11 11 10 10 11 10 10 10 9 8 8 8 8 7 6 6 7 7 7 7 8 8 9 9 9
8 8 8 9 10 10 11 11 13 13 13 14 14 14 14 14 14 15 15 15 15 15 15 14 14 14 14 14 14 14 14 15 14 14 14 14 14 13 12 11 11 11 10 10 10 10 9 8 8 8 8 7 6 5 6 7 7 7 7 7 8 8 9
6 7 8 9 9 10 11 11 12 13 13 14 14 14 14 14 14 14 15 15 15 15 15 15 15 15 14 14 14 14 14 15 14 14 14 14 14 13 12 12 11 10 10 10 9 8 8 7 8 7 7 6 6 5 5 6 6 6 6 6 6 6 7
5 7 7 8 9 10 11 12 12 13 13 13 13 13 14 14 14 14 14 15 15 15 15 15 15 15 15 15 14 15 14 14 14 14 14 14 14 14 13 13 12 10 9 9 8 7 7 7 7 7 6 5 5 4 4 5 6 6 6 5 5 6 6
4 6 6 7 9 10 11 11 12 13 13 13 13 13 14 14 14 14 14 14 15 15 15 15 15 15 15 15 15 15 14 14 14 14 14 14 14 14 14 13 13 11 10 8 7 7 6 6 6 6 5 5 4 4 4 4 4 5 5 5 4 5 5
2 5 6 7 9 10 11 11 12 12 13 13 13 13 13 14 14 14 14 14 14 15 15 15 15 15 15 15 15 15 14 14 14 14 14 13 14 14 14 14 13 12 11 9 8 7 6 6 6 6 5 5 5 4 4 3 3 4 4 4 4 4 4
-1 4 7 7 8 9 10 11 12 13 13 13 13 13 13 14 14 14 14 14 14 14 15 15 15 15 15 15 15 14 14 14 14 14 14 14 14 14 14 14 13 12 11 10 8 7 6 7 6 6 6 5 5 4 4 4 3 3 3 4 3 3 3
-4 3 7 8 9 9 10 11 12 12 13 13 13 13 13 14 14 14 14 14 14 14 14 15 15 15 15 15 15 14 14 14 14 14 14 14 14 14 14 14 14 13 12 10 9 8 7 7 7 7 6 5 5 4 4 4 2 2 3 3 3 2 2
-1 4 7 8 9 9 9 11 12 12 13 13 13 13 13 13 14 14 14 14 14 14 14 14 15 15 15 15 14 14 14 14 14 14 14 14 14 14 14 14 14 14 13 12 10 9 9 8 8 7 7 6 5 5 4 3 2 1 1 2 2 2 2
4 6 8 8 8 9 10 11 12 13 13 13 13 13 13 13 13 14 14 14 14 14 14 14 14 14 14 14 15 15 15 14 14 14 14 14 14 14 14 15 15 15 14 13 12 10 10 9 8 8 7 7 6 5 4 3 1 1 1 1 1 1 1
6 7 8 9 9 9 10 11 12 12 13 13 13 12 13 13 13 13 14 14 14 14 14 14 14 14 14 15 15 15 15 15 15 14 14 14 14 14 14 15 15 15 15 14 13 12 11 10 8 8 8 7 7 6 5 3 2 1 1 0 0 1 1
7 8 8 9 10 9 10 11 11 12 12 12 12 12 13 13 13 13 14 14 14 14 14 15 15 15 14 15 15 15 15 15 15 15 14 14 14 14 15 15 15 15 15 14 14 14 13 11 9 8 7 7 6 6 5 4 2 1 1 1 0 1 1
6 9 9 9 10 10 10 11 11 12 13 13 13 13 13 14 14 14 14 14 14 14 14 15 15 15 15 15 15 15 15 15 15 15 14 14 14 14 15 15 15 15 15 15 15 15 14 13 11 9 7 6 6 5 5 4 3 3 2 2 1 2 3
7 8 9 9 10 11 11 11 11 12 12 13 13 13 13 14 14 14 14 14 14 14 14 15 15 15 14 15 15 15 15 15 15 15 15 15 15 15 15 15 15 15 15 16 16 16 16 15 14 13 11 9 8 7 5 3 3 3 3 2 3 4 5
10 7 9 9 10 11 11 11 12 12 13 13 13 13 13 14 14 14 14 14 14 15 15 15 15 14 14 14 14 15 15 15 15 15 15 15 15 15 15 15 15 15 16 16 16 17 17 16 16 15 14 13 12 11 8 4 3 3 3 3 4 5 6
13 9 9 9 10 11 12 12 12 13 13 13 13 13 13 13 14 14 14 14 14 14 15 15 14 14 14 14 14 14 14 14 14 14 15 15 15 15 15 15 16 16 17 17 17 17 17 17 17 17 16 16 15 14 12 9 7 6 5 5 5 6 7
16 12 10 10 10 11 11 12 12 12 13 13 13 13 13 13 14 14 14 14 14 14 15 14 14 14 14 13 13 14 14 14 14 14 15 15 15 15 15 16 16 17 17 17 17 17 17 17 17 17 17 17 16 16 16 14 13 12 11 10 10 10 10
18 16 13 11 11 11 11 12 12 12 12 12 13 13 13 13 13 14 14 14 14 14 15 14 13 13 13 13 13 13 14 14 14 14 15 15 15 15 16 16 16 17 17 17 17 17 17 18 18 18 18 17 17 17 17 16 16 15 14 14 13 13 13
18 18 16 14 12 11 11 12 12 12 12 12 12 12 13 13 13 13 14 14 14 14 14 14 13 13 13 13 13 13 14 14 14 15 15 15 16 16 16 16 17 17 17 17 17 18 18 18 18 18 18 18 18 18 17 17 17 16 16 16 15 15 14
18 18 18 17 15 14 12 12 12 12 12 12 12 12 12 12 13 13 14 14 14 14 14 14 14 14 14 14 14 14 15 15 15 15 16 16 16 16 17 17 17 17 17 18 18 18 18 18 18 18 18 18 18 18 18 17 17 17 17 16 16 16 15
18 18 18 18 18 17 16 15 14 14 14 13 13 13 13 13 13 13 13 14 14 14 14 14 14 14 15 15 15 15 15 16 16 16 16 16 17 17 17 17 17 17 17 18 18 18 18 18 18 18 18 18 18 18 18 18 17 17 17 17 16 16 16
17 17 17 17 18 18 18 18 17 17 17 16 15 14 14 14 13 14 14 14 14 14 15 15 15 15 15 16 16 16 16 16 16 16 16 17 17 17 17 17 17 17 18 18 18 18 18 18 18 18 18 18 18 18 17 17 17 17 17 17 17 17 16
16 16 16 16 17 17 17 18 18 18 18 18 17 17 16 16 15 15 15 16 16 16 16 16 17 17 17 17 17 17 17 17 17 17 17 17 17 17 17 17 17 18 18 18 18 18 18 18 18 18 18 18 18 18 17 18 17 17 17 17 17 17 17
16 15 15 16 15 15 16 16 17 17 18 18 18 18 18 17 17 17 17 17 17 17 17 17 17 17 17 17 17 17 17 16 16 16 16 16 17 17 17 17 17 17 17 18 18 18 18 18 18 18 18 18 18 18 18 18 17 18 18 17 17 17 17
17 16 15 15 15 15 15 14 14 15 15 16 16 17 17 18 17 17 17 17 17 17 17 17 16 16 16 16 15 15 15 15 15 15 15 16 16 16 17 17 17 17 17 18 18 18 18 18 18 18 18 18 18 18 18 18 18 18 18 18 18 18 18
16 17 16 16 15 15 14 14 14 14 14 14 14 14 15 15 15 15 15 15 15 15 15 15 15 15 15 14 14 13 13 14 15 15 15 16 16 16 17 17 17 17 17 17 17 18 18 18 18 18 18 18 18 18 18 18 18 18 18 18 19 19 19
15 16 16 16 16 16 15 15 15 15 14 15 15 14 13 12 11 11 11 11 11 12 12 12 12 12 12 12 12 11 11 12 14 15 15 15 16 16 16 17 17 17 17 17 17 17 18 18 18 18 18 18 19 19 19 19 19 19 19 19 19 19 19
15 15 16 16 16 16 16 16 16 15 15 15 15 14 14 13 12 12 11 10 10 10 10 10 11 11 11 10 10 11 12 13 14 15 15 15 16 16 16 16 17 17 17 17 17 18 18 18 18 19 19 19 19 19 19 19 19 19 19 20 20 20 20
15 15 15 16 16 16 16 16 16 16 15 15 15 14 14 14 14 14 13 13 13 13 12 13 14 14 15 15 14 14 15 15 15 15 16 16 16 16 16 17 17 17 17 17 18 18 18 19 19 19 19 19 19 19 19 19 20 20 20 20 20 20 20
15 15 15 15 15 15 15 15 16 16 16 15 15 15 14 13 14 14 14 14 15 15 16 15 16 17 17 18 17 17 17 17 16 16 16 16 17 17 17 17 17 17 18 18 18 18 19 19 19 19 19 19 19 19 20 20 20 20 20 20 20 20 20